GFSMA_500_spd_078.txt.gz
Wind_Speed
20 19 18 18 20 21 22 23 22 22 24 25 26 27 26 26 27 27 27 28 27 26 25 24 24 22 21 21 21 21 22 23 24 23 20 19 19 17 17 16 16 17 17
23 22 21 22 23 23 23 23 24 24 26 28 30 31 30 30 29 29 28 29 30 29 27 26 26 25 24 24 24 23 23 25 26 25 24 22 22 20 19 19 18 18 18
24 24 24 25 26 26 26 26 28 29 29 31 33 34 34 33 33 32 31 30 31 31 30 29 29 28 28 28 27 27 26 26 26 27 27 26 25 25 24 22 22 21 21
26 25 26 27 28 29 28 29 30 31 31 32 34 36 36 37 37 36 34 33 33 33 34 34 32 32 32 32 31 30 30 29 28 28 29 29 27 28 28 27 27 26 26
26 28 29 29 29 29 29 30 31 31 32 33 34 35 36 37 38 39 39 37 36 35 36 37 37 36 36 35 35 35 34 32 32 32 31 30 29 29 30 31 32 32 30
29 30 31 32 32 30 29 30 32 33 34 36 37 37 39 40 40 40 40 40 39 38 40 42 43 42 40 40 41 41 40 39 38 35 35 34 33 33 34 34 35 36 36
32 32 33 33 34 33 32 32 34 35 36 39 40 40 43 41 38 38 41 40 40 42 43 44 43 43 41 44 47 46 45 45 44 42 40 40 39 39 39 39 40 39 38
34 33 34 35 35 35 36 36 37 38 38 41 42 44 41 42 43 45 45 46 46 45 44 46 48 46 44 45 39 41 47 45 47 47 45 45 47 47 44 45 45 44 44
35 35 35 36 38 38 38 40 41 42 41 43 42 44 45 45 46 48 49 51 50 50 48 48 48 50 50 50 51 49 42 45 45 43 45 47 50 51 51 49 50 51 51
37 37 38 39 39 40 41 42 43 43 43 42 43 45 47 48 49 49 51 51 53 54 52 51 51 45 51 55 58 54 51 48 50 48 49 48 57 48 49 52 53 51 48
40 40 40 41 41 43 43 43 43 42 40 41 42 45 47 50 52 53 54 56 58 58 59 59 55 49 50 58 50 52 57 51 50 48 53 51 52 55 57 57 58 57 54
43 43 44 44 44 43 42 42 40 38 38 40 44 47 51 53 51 47 43 44 46 54 63 67 67 64 58 59 56 55 44 41 48 49 56 49 56 49 55 53 54 55 53
43 44 45 45 44 44 43 39 38 36 39 43 46 44 38 40 46 47 49 51 53 58 58 60 67 68 68 69 68 62 63 46 48 48 49 43 49 46 44 47 44 44 43
41 42 43 43 44 42 38 37 36 38 43 44 38 42 40 43 43 48 50 54 59 63 65 64 62 61 64 65 62 53 56 55 53 52 41 44 49 53 47 43 44 48 46
42 42 42 41 39 36 36 35 36 39 37 34 39 41 41 41 41 46 49 51 58 68 68 64 56 52 43 53 60 52 52 54 47 46 46 41 36 38 44 49 65 57 56
42 41 39 37 35 34 33 35 36 37 35 37 40 41 41 41 41 41 44 50 55 59 51 48 45 46 59 36 37 43 40 43 50 56 55 55 58 67 61 62 60 57 51
39 38 36 35 34 33 34 37 37 35 34 36 38 41 43 43 42 43 43 44 48 47 43 37 36 40 43 50 46 48 54 55 53 51 50 53 56 57 54 53 52 53 52
36 36 35 34 34 33 35 38 39 34 33 36 38 40 42 42 44 42 39 38 41 41 35 34 31 32 36 34 37 38 43 46 48 48 49 51 52 52 48 47 42 39 42
36 35 34 34 33 34 35 38 36 36 37 37 41 40 41 41 40 38 37 37 36 35 32 29 30 34 34 34 36 36 42 43 44 46 45 47 44 37 38 40 42 45 48
35 35 34 34 33 34 37 37 37 38 39 38 38 38 39 39 38 35 37 39 36 33 30 26 26 26 25 26 27 35 36 38 39 37 37 36 39 41 43 46 49 51 53
34 33 32 32 33 34 36 37 37 36 36 38 37 40 38 35 34 35 35 35 34 29 27 26 24 24 26 31 34 40 36 28 30 32 35 39 41 45 47 50 53 55 57
31 31 30 31 32 33 34 34 33 34 36 37 37 34 32 32 32 30 29 27 25 26 26 26 26 26 26 26 28 29 32 34 36 39 40 42 45 47 50 51 55 57 57
29 28 29 30 31 31 32 32 34 34 35 35 31 30 29 29 28 27 27 26 27 28 29 30 30 30 31 33 35 36 38 40 42 43 45 47 49 51 50 51 53 52 49
27 28 28 30 29 28 30 33 33 33 33 29 27 28 29 29 28 28 28 29 30 31 32 33 33 35 36 38 39 40 41 42 42 44 45 45 46 48 48 50 49 49 46
24 26 27 26 26 28 31 31 31 31 28 26 27 28 28 28 28 29 30 32 33 34 36 37 37 37 38 39 39 40 41 42 44 44 45 44 46 46 46 48 47 45 43
23 23 23 24 27 29 29 28 30 27 26 26 28 28 28 29 30 31 33 35 36 38 38 39 40 40 39 39 39 40 41 43 46 46 45 46 46 45 43 45 45 42 41

GFSMA_500_spd_081.txt.gz
Wind_Speed
20 20 20 22 22 22 22 23 23 24 25 26 27 27 27 28 28 29 30 31 31 31 29 30 30 30 29 29 27 27 26 25 24 25 25 25 24 23 20 19 18 17 16
22 21 22 23 23 23 24 25 25 25 27 27 28 28 28 29 31 31 32 33 35 35 33 32 32 32 32 31 31 31 30 30 29 27 27 27 26 26 25 22 21 20 19
25 24 24 24 24 25 25 25 26 27 27 27 29 30 31 31 32 32 33 34 36 38 38 36 35 35 34 34 34 34 35 34 34 32 30 29 29 28 29 27 26 24 24
27 27 26 26 26 27 26 28 28 29 29 29 31 32 34 34 35 36 36 37 38 38 39 40 39 39 38 39 39 39 38 38 38 38 36 33 32 31 32 31 31 30 29
29 28 28 28 29 29 29 30 30 31 31 33 34 34 36 37 37 37 39 40 40 40 41 43 43 43 43 42 43 43 42 42 42 42 42 40 38 36 34 33 33 33 34
29 29 30 30 30 30 31 32 31 32 33 35 35 35 38 39 39 39 40 39 39 40 42 42 43 46 49 47 45 44 47 48 47 46 46 46 44 43 41 37 37 35 37
31 31 31 32 31 32 33 33 33 33 35 37 38 39 39 39 40 41 38 40 42 43 43 44 45 47 50 49 49 48 46 45 44 46 52 52 49 47 47 44 42 40 39
34 34 33 31 33 34 35 34 36 38 39 40 40 41 40 38 38 40 42 44 45 46 46 45 45 47 48 48 48 51 54 56 52 48 41 44 50 51 51 51 49 47 48
36 34 35 35 36 37 37 38 39 41 40 41 41 41 41 39 37 38 42 45 47 49 51 52 52 50 50 50 52 54 56 59 53 58 58 51 46 46 44 46 50 50 49
36 38 38 38 38 39 39 40 41 42 42 41 40 38 39 40 38 40 44 47 47 47 45 44 46 50 52 55 56 59 60 62 59 50 48 51 55 47 55 47 49 47 53
39 40 40 39 40 41 41 42 42 42 41 41 39 36 39 40 43 44 42 37 42 44 45 45 48 52 57 56 54 57 68 67 61 55 50 49 48 48 47 46 45 48 49
42 42 42 41 42 43 43 43 43 41 41 38 36 37 40 43 43 40 42 42 43 44 47 51 51 54 60 62 58 54 61 67 68 58 66 60 52 51 48 47 45 44 49
45 44 43 43 44 45 44 43 42 41 39 34 34 37 41 40 38 41 42 43 42 43 45 48 51 55 63 63 64 63 59 49 57 58 58 46 50 46 43 47 40 39 41
46 45 45 43 44 45 44 43 43 39 36 35 35 39 39 37 39 43 45 46 44 45 46 45 50 56 61 56 55 52 56 49 45 45 37 36 42 32 34 39 42 34 37
43 41 43 43 43 44 44 43 40 38 38 36 37 40 38 39 40 41 44 47 48 48 47 44 48 54 52 47 45 42 43 53 45 42 32 32 36 37 37 44 37 41 41
41 42 43 43 44 44 41 39 38 37 36 37 38 40 38 38 40 42 45 45 46 47 44 41 44 46 42 39 36 33 34 37 38 39 42 43 38 39 40 40 45 48 45
42 43 44 44 43 40 37 37 36 35 36 37 39 39 38 40 42 45 44 44 45 44 41 43 44 42 37 33 34 35 28 26 32 33 34 36 35 36 37 38 41 44 43
44 43 43 41 38 37 36 35 34 34 36 38 39 39 42 43 44 45 45 45 42 40 41 43 42 38 34 32 27 27 28 34 39 36 38 35 35 33 31 31 29 29 30
42 41 38 37 37 36 34 35 34 35 37 39 38 40 41 42 44 45 46 39 37 38 39 37 36 35 34 33 30 29 28 28 33 36 34 35 29 30 28 28 30 32 34
38 37 36 36 35 34 35 34 35 36 38 38 40 39 39 42 44 43 37 34 34 33 32 30 30 30 31 30 30 31 32 35 36 35 37 30 30 31 32 35 35 37 39
36 35 35 35 34 35 33 34 35 36 36 37 37 38 39 42 40 35 32 32 32 31 29 31 32 34 34 35 35 35 35 37 35 35 37 37 38 39 40 41 43 44 45
34 33 33 34 33 32 33 33 33 34 35 35 37 38 40 37 33 32 32 31 29 29 31 32 33 34 35 35 36 37 38 40 40 40 41 41 43 43 43 45 45 46 47
30 32 33 31 30 31 31 32 31 32 33 35 37 38 35 31 31 31 31 30 30 31 32 34 36 36 37 39 40 41 42 44 44 43 43 42 43 44 46 46 48 48 48
31 31 30 29 29 30 30 30 30 30 33 35 35 33 30 30 30 29 30 31 31 32 33 36 38 39 40 42 41 42 42 42 43 44 44 44 44 46 48 48 49 49 48
30 28 27 27 27 26 27 27 28 31 32 33 33 30 29 30 30 31 32 32 32 33 35 37 39 40 42 43 43 43 41 40 41 42 43 45 48 49 50 50 50 50 48
24 24 23 23 23 24 25 26 28 30 31 32 30 28 28 29 30 31 32 33 34 35 37 38 40 41 42 44 45 43 39 39 40 43 45 46 48 49 52 53 53 52 51

GFSMA_500_spd_084.txt.gz
Wind_Speed
19 19 19 19 20 19 20 21 22 23 23 24 24 24 25 26 27 27 28 29 30 30 31 32 33 33 31 31 32 31 31 32 32 31 32 31 30 27 26 25 24 23 21
20 20 21 21 21 21 22 22 22 23 24 25 26 26 27 28 29 30 31 33 33 34 34 34 35 35 35 35 35 35 36 35 35 35 35 35 34 32 29 28 27 26 26
23 22 23 24 23 24 24 24 24 24 25 26 27 27 28 30 31 31 33 35 35 36 37 38 38 37 39 40 39 39 38 38 39 39 38 38 38 36 34 32 31 30 29
25 25 25 25 25 25 26 26 26 26 26 28 29 29 31 32 34 33 37 38 39 38 39 37 36 36 38 39 40 42 42 42 42 41 42 42 42 42 40 37 35 33 33
27 27 27 28 28 27 28 28 28 28 29 30 31 32 34 35 36 37 39 40 40 40 38 38 40 41 42 42 42 42 41 44 46 46 45 46 46 44 45 44 40 39 37
29 29 30 31 29 29 29 29 30 30 31 33 33 34 36 36 37 38 41 40 39 40 40 41 42 43 45 45 44 44 44 42 43 45 48 48 47 44 49 51 50 47 42
32 32 33 33 31 30 32 32 32 33 34 36 37 37 38 38 38 39 40 38 39 39 41 42 44 44 45 45 45 45 45 46 43 46 49 50 53 53 48 43 51 51 45
35 36 34 32 32 32 33 35 37 36 37 38 39 40 38 38 37 39 38 37 38 39 42 43 42 40 38 38 38 40 42 46 49 52 51 52 51 55 51 53 46 49 49
37 37 36 35 36 37 37 38 40 40 40 39 41 41 41 39 38 34 34 36 39 41 39 37 40 38 38 41 43 43 45 47 48 51 58 59 63 54 49 52 48 50 53
41 39 38 37 39 39 39 41 43 42 41 41 42 41 40 39 36 33 34 38 39 35 40 39 42 41 43 45 45 47 48 52 56 56 59 57 61 61 66 47 54 57 50
43 41 39 39 39 41 43 43 43 41 41 42 42 40 38 35 35 35 35 37 35 37 39 41 41 41 43 46 46 50 54 61 64 60 62 62 70 55 54 56 55 46 41
44 41 41 41 43 45 45 45 44 42 42 42 40 40 36 36 35 37 37 36 34 36 40 43 44 46 47 49 48 52 58 61 59 53 52 58 41 52 52 50 41 52 42
44 44 43 44 46 48 46 45 43 42 42 41 40 36 35 35 35 38 37 36 35 36 39 44 46 46 48 45 46 49 55 57 53 49 47 49 48 29 37 37 38 37 38
44 44 47 47 48 46 44 45 42 43 42 42 39 37 36 35 36 38 38 36 36 39 43 45 45 47 46 43 46 48 49 51 46 27 35 27 35 32 41 28 25 32 33
54 55 53 51 50 47 45 43 43 43 44 40 37 36 35 34 36 37 37 38 41 42 46 46 47 45 43 42 45 44 43 43 39 31 20 28 34 34 33 38 37 30 29
50 49 49 49 48 45 43 43 45 44 41 38 37 35 34 34 37 36 38 41 42 46 47 47 44 41 41 42 39 38 38 36 33 26 22 25 35 35 32 33 31 34 32
42 43 43 43 42 42 43 44 44 41 38 37 36 35 34 35 37 37 40 41 43 46 47 43 39 38 38 35 33 34 32 32 32 30 30 31 32 32 34 32 31 29 30
44 44 43 43 43 43 44 43 41 38 37 36 35 34 35 36 37 38 38 40 42 45 41 37 35 33 31 29 30 30 30 31 32 32 32 35 37 37 34 32 28 27 25
44 45 44 45 46 44 43 39 38 37 35 35 33 33 34 36 37 37 39 41 43 39 36 35 34 31 30 32 32 33 34 34 35 35 36 36 36 34 29 28 25 26 27
47 45 47 44 43 41 38 37 35 34 34 32 32 32 33 35 35 36 39 41 38 35 35 32 30 31 32 33 33 34 35 36 38 39 40 41 41 40 38 36 34 34 33
43 42 42 41 40 37 36 35 34 33 30 30 31 31 32 33 35 38 39 36 34 33 32 31 32 33 33 34 35 36 38 39 40 41 43 44 44 44 44 42 41 40 38
40 39 41 38 35 35 34 34 31 29 29 29 29 29 31 32 36 38 36 32 32 31 31 32 32 33 34 34 37 38 40 40 42 43 45 43 43 43 43 41 41 40 41
38 37 35 34 34 32 32 29 28 28 28 28 29 30 31 34 35 35 32 31 31 31 33 33 33 34 35 36 38 40 41 42 44 45 45 42 43 43 42 42 43 44 44
34 34 32 32 31 31 29 28 27 28 26 28 28 29 32 33 33 31 30 30 32 34 34 34 35 36 37 39 40 41 42 44 46 44 42 41 39 41 42 44 47 48 48
32 31 33 31 30 28 27 27 26 25 27 26 27 29 31 32 30 29 29 30 32 33 34 35 36 37 38 40 41 43 44 47 48 43 41 42 45 46 46 46 48 50 51
30 31 29 27 26 26 26 25 25 25 26 26 27 28 31 29 29 29 30 32 32 34 35 36 37 38 40 42 44 45 47 50 47 44 44 43 46 48 49 51 53 55 55

GFSMA_500_spd_087.txt.gz
Wind_Speed
18 18 17 17 17 16 17 18 19 20 20 20 21 23 24 26 28 28 29 30 31 31 30 31 32 32 33 32 32 32 33 33 33 33 33 33 32 33 34 33 32 30 28
20 20 20 19 18 18 19 19 20 21 21 22 23 24 26 28 29 30 31 33 33 33 34 33 33 35 34 32 32 33 34 34 34 34 36 35 34 34 36 36 35 33 31
22 22 22 21 20 21 21 21 22 22 23 24 24 26 27 29 30 31 33 34 34 35 35 35 35 34 34 35 36 36 37 35 35 34 35 36 37 37 38 36 37 36 34
25 25 24 23 23 24 23 23 24 24 25 26 27 28 30 31 31 33 35 36 36 36 36 35 35 35 36 37 39 39 39 38 36 36 37 38 38 39 39 40 41 37 38
28 28 28 26 25 26 26 25 26 27 27 28 29 30 32 33 34 36 37 38 38 38 36 35 35 35 36 38 39 40 39 37 37 38 38 38 39 41 43 42 41 44 45
31 30 30 30 29 28 28 27 28 28 29 30 31 33 35 35 36 37 39 39 38 37 36 35 35 36 39 40 38 35 31 29 30 34 37 39 42 42 50 44 46 46 45
33 34 34 33 31 30 30 30 30 31 30 33 34 36 36 37 37 38 38 38 37 36 36 34 37 39 36 34 33 33 34 35 34 34 35 36 39 44 46 56 55 50 48
35 33 32 33 31 30 31 32 32 33 35 37 38 39 37 38 38 38 37 39 37 35 34 36 37 34 33 35 35 36 38 40 40 40 41 43 46 52 57 57 56 43 48
35 35 36 36 35 35 34 34 37 36 37 39 42 43 42 38 36 34 35 34 34 35 36 35 32 32 35 39 40 40 40 43 44 45 45 49 54 57 57 60 58 50 47
41 41 41 40 39 38 37 36 38 40 41 43 42 43 43 40 39 36 36 33 35 35 35 32 33 34 36 40 42 43 42 44 44 45 49 54 58 62 54 55 63 56 52
45 43 42 41 40 40 39 38 40 41 44 44 43 43 42 40 38 40 37 34 34 36 33 33 34 35 39 43 44 43 43 42 41 45 49 53 56 44 45 46 45 46 48
45 44 44 43 43 42 42 41 41 43 46 46 44 43 42 40 38 42 37 34 33 35 34 35 36 39 43 45 44 44 43 40 42 44 46 51 41 37 34 26 28 25 29
48 47 46 45 45 44 43 42 43 45 48 45 43 43 42 39 40 38 35 33 34 34 33 35 38 41 44 45 45 43 40 39 40 39 41 43 31 27 22 22 27 31 16
50 49 50 48 46 46 47 48 49 53 47 45 43 42 40 40 38 35 33 32 34 33 32 36 38 42 45 46 43 39 38 39 36 36 36 35 27 22 22 29 28 33 26
48 47 46 46 47 49 51 53 52 47 46 43 41 42 42 39 36 34 32 32 34 32 35 36 39 42 44 42 38 37 37 34 32 32 32 32 31 29 28 28 29 28 29
46 47 48 50 52 52 50 47 45 42 41 40 43 47 43 37 35 34 31 32 33 34 35 38 40 42 41 37 36 35 32 31 32 31 30 32 32 32 33 34 34 35 34
53 53 53 52 52 46 43 43 42 40 42 42 46 43 39 36 35 32 31 32 34 35 37 38 39 39 36 35 33 30 30 32 33 34 34 33 35 35 36 36 36 36 36
54 54 54 50 44 42 43 42 42 42 44 44 42 39 37 35 32 31 30 32 34 35 37 38 38 35 34 33 31 30 32 33 33 34 35 36 37 38 39 39 38 35 30
48 47 45 49 46 42 42 41 42 43 42 41 39 37 36 33 31 31 30 32 33 35 36 35 34 33 31 31 32 32 32 32 34 36 38 39 40 41 42 41 40 37 35
46 46 43 43 49 47 45 44 43 42 39 38 37 34 32 30 30 29 30 31 33 33 33 33 31 30 32 32 32 31 32 33 36 37 38 40 41 44 45 45 42 41 38
39 39 38 36 40 39 42 41 39 38 37 36 33 32 30 29 28 28 29 31 31 32 31 31 30 31 32 33 32 33 34 35 36 38 39 42 44 46 44 43 42 41 39
39 40 41 41 39 41 38 38 38 37 34 33 30 29 27 27 28 27 29 30 30 30 31 29 30 31 32 32 33 34 34 36 37 40 43 44 48 45 41 40 40 40 40
38 39 40 43 43 41 40 37 34 32 33 29 28 27 25 27 27 28 28 29 29 30 30 30 30 31 31 32 33 34 36 38 40 42 46 47 48 43 39 39 41 42 43
37 37 42 40 39 36 33 31 32 31 28 27 26 26 26 27 27 27 27 28 28 29 29 30 31 32 33 34 34 35 37 40 42 44 47 49 49 43 41 42 43 44 46
44 41 38 36 34 32 29 32 31 27 26 26 26 25 26 26 25 26 27 27 28 28 29 30 32 33 34 35 36 38 40 42 45 47 48 52 51 44 42 43 45 48 50
36 36 35 33 32 31 32 28 26 26 26 25 25 26 25 25 25 25 25 26 27 27 29 31 33 34 35 36 38 40 42 44 46 48 50 53 49 44 44 46 50 54 57

GFSMA_500_spd_090.txt.gz
Wind_Speed
18 18 17 17 16 15 15 16 16 17 18 19 21 23 23 24 26 28 28 29 29 31 31 32 31 30 30 29 28 28 29 29 30 30 30 31 31 32 32 31 31 31 31
21 20 20 19 18 18 18 18 19 19 20 20 23 23 24 26 27 29 30 31 32 33 33 32 32 32 30 30 30 29 30 32 32 32 33 33 34 35 35 34 34 35 35
22 22 22 21 21 21 21 21 21 22 22 23 24 24 25 27 28 31 33 34 34 35 35 34 33 32 31 30 30 31 34 35 36 37 36 35 35 36 38 38 37 37 35
25 25 25 23 23 23 23 23 24 24 24 26 26 26 27 29 30 33 35 36 37 36 36 35 34 32 31 30 32 34 34 34 32 31 32 32 33 34 36 38 39 36 38
29 28 28 26 26 25 26 26 25 25 27 29 29 28 28 30 32 35 36 38 38 37 37 36 35 32 31 32 34 33 30 29 31 33 33 33 32 31 33 34 36 39 40
32 31 31 29 28 28 28 27 27 28 30 31 30 29 30 32 33 37 38 39 40 39 38 37 34 32 32 34 32 29 31 32 32 33 35 36 36 34 37 37 40 43 46
34 34 34 32 31 30 30 30 30 31 31 32 30 31 33 34 36 39 40 41 41 40 38 37 34 33 33 32 28 29 33 35 37 37 36 37 38 38 40 43 45 48 52
39 38 34 33 33 32 31 30 31 33 33 33 34 34 33 36 39 41 43 42 40 41 39 37 34 34 33 31 30 31 34 37 39 41 40 40 40 39 44 47 50 54 56
39 35 34 36 36 35 33 35 35 36 35 35 37 37 36 39 40 40 40 41 41 41 38 37 34 34 33 32 32 34 38 40 41 41 43 41 39 42 44 48 51 44 44
41 39 38 38 38 39 39 39 37 38 39 38 39 38 39 41 45 44 39 38 40 39 37 35 34 34 34 34 34 37 40 42 42 42 42 40 41 40 43 42 38 26 32
43 41 41 42 41 42 42 39 40 40 40 40 39 39 40 45 46 43 41 39 38 41 38 36 35 34 34 34 37 40 42 43 43 40 38 39 41 37 38 32 20 25 26
43 43 44 44 44 42 42 42 42 41 41 40 41 41 45 46 46 42 41 37 41 42 39 35 35 34 32 35 38 41 43 44 41 37 36 38 36 35 32 28 25 26 27
45 46 45 44 43 44 46 45 44 44 44 44 44 48 50 47 44 43 40 39 41 40 36 35 35 34 36 37 39 41 42 40 36 35 34 33 33 32 31 29 29 30 30
46 47 45 46 47 47 47 46 45 44 44 49 52 52 51 45 43 42 40 43 40 35 33 32 33 35 36 38 39 40 39 35 34 32 29 31 32 32 32 32 32 31 30
50 52 52 47 48 52 52 49 48 48 50 52 52 46 44 42 41 42 44 41 37 34 31 33 34 36 37 39 39 38 35 34 33 28 29 32 33 33 34 34 35 36 35
53 52 50 51 50 50 48 47 48 52 51 46 43 41 41 41 42 43 41 38 35 33 32 35 35 36 37 38 37 35 34 33 31 31 32 33 34 34 35 36 37 38 38
52 51 51 50 50 50 50 52 52 51 45 42 42 41 41 43 43 42 39 36 34 32 34 34 34 36 36 35 34 33 32 32 32 34 32 32 33 35 37 38 38 39 40
51 52 51 51 50 49 49 51 53 47 44 42 43 43 43 42 40 39 37 34 32 34 34 33 34 34 34 33 32 31 32 32 33 31 31 33 35 36 37 39 41 43 45
49 50 49 48 46 48 47 46 44 46 43 40 42 44 45 41 40 37 34 31 34 33 33 33 33 33 32 32 31 31 31 32 32 33 34 35 36 37 39 40 42 43 44
51 50 48 45 45 44 43 44 42 42 47 48 46 42 42 38 37 34 31 34 32 32 33 32 32 31 31 31 31 31 31 32 33 34 35 37 37 39 41 43 45 44 41
50 49 49 49 46 44 42 40 38 39 40 42 40 38 37 37 32 34 31 31 31 32 31 31 31 30 31 31 30 30 31 32 33 34 36 37 38 42 44 46 47 45 41
44 46 48 46 43 42 40 40 40 38 41 36 37 42 35 31 34 30 31 31 32 31 30 30 29 30 30 30 29 30 31 32 33 35 37 39 41 43 45 48 49 46 42
38 38 38 39 41 42 43 43 44 43 43 42 39 35 29 33 31 29 30 31 30 29 30 29 29 29 29 28 30 31 32 34 35 37 39 41 43 44 47 50 51 45 42
37 34 35 36 34 35 36 38 41 40 39 35 30 27 32 30 29 30 30 29 29 29 28 28 28 28 27 29 30 31 33 35 37 39 41 43 44 46 49 51 49 44 45
43 46 41 41 39 41 41 39 36 36 32 28 30 32 30 29 29 28 28 28 28 27 27 27 27 27 28 30 31 32 33 35 38 41 42 44 46 48 50 51 46 46 47
39 38 43 44 47 43 39 37 36 32 31 33 30 29 28 27 27 28 28 27 26 26 27 27 27 28 29 30 32 34 37 38 40 42 44 45 47 50 53 51 46 46 48

GFSMA_500_spd_093.txt.gz
Wind_Speed
17 16 16 15 15 14 15 15 15 17 18 19 19 20 22 24 24 25 25 27 29 30 31 31 31 31 32 32 30 29 29 28 29 30 30 30 29 30 30 31 32 32 31
21 20 19 18 18 18 17 17 17 18 19 20 21 22 24 26 26 27 27 29 32 32 33 33 32 32 32 32 31 30 28 29 30 29 27 29 30 30 30 30 32 33 33
23 23 22 21 21 21 21 20 20 21 21 21 22 23 25 26 27 28 29 32 34 35 35 35 34 32 32 33 30 30 31 30 27 26 28 30 31 31 29 29 29 31 33
26 26 25 24 24 24 23 23 23 23 23 23 23 24 27 27 28 30 31 34 37 38 37 37 34 33 33 32 31 30 31 29 27 28 30 31 33 33 31 32 31 33 34
30 31 30 28 27 26 26 25 24 25 25 25 25 26 28 28 29 32 33 36 38 41 40 37 36 33 33 33 31 31 28 25 27 29 32 33 36 34 34 34 34 35 36
35 35 33 31 30 29 28 25 26 26 26 26 26 28 29 30 32 33 34 38 39 43 42 40 36 35 34 33 32 31 28 27 28 30 32 34 38 37 37 36 35 35 40
41 39 37 35 33 30 28 28 28 27 26 25 27 29 31 33 32 34 36 39 41 45 42 39 35 34 34 35 32 32 31 29 29 34 35 38 38 38 37 34 35 40 39
46 43 42 37 34 31 30 30 30 28 28 29 31 33 33 35 34 35 38 39 45 45 40 38 35 37 36 35 33 32 32 31 34 37 40 40 40 40 37 34 38 36 37
47 48 46 40 37 34 32 31 32 32 32 33 34 35 37 36 36 37 36 40 43 43 41 38 37 39 38 36 33 33 32 33 36 39 41 41 40 38 34 36 34 33 32
57 54 52 47 43 41 37 34 33 35 35 35 33 38 39 39 39 38 38 43 43 41 39 36 38 40 39 34 33 33 33 35 36 40 41 42 38 34 33 33 31 31 30
54 58 48 37 41 40 38 36 35 36 37 36 38 38 39 41 40 40 42 47 45 41 39 38 39 42 38 34 34 33 35 36 38 40 40 37 34 33 31 31 29 29 29
57 55 54 50 41 41 36 37 37 37 37 38 39 41 39 40 42 46 49 51 43 42 40 40 41 39 36 34 34 35 36 37 39 39 37 33 32 32 29 32 31 30 30
57 54 52 47 47 41 38 39 40 40 41 41 42 42 41 43 50 49 51 45 43 40 41 43 41 37 35 33 33 36 37 39 39 38 33 32 31 28 30 31 31 33 33
57 58 67 50 46 41 41 41 42 45 42 42 41 42 43 47 50 48 43 43 41 41 42 38 38 36 34 33 38 36 37 39 36 33 31 30 28 29 31 31 33 33 34
51 57 50 49 45 46 42 43 46 44 46 50 49 44 46 50 45 42 41 41 43 44 42 36 36 35 33 37 38 36 37 36 33 30 29 29 29 30 30 31 32 33 34
45 42 43 45 46 45 48 51 48 48 46 48 47 46 49 44 41 41 41 43 43 41 39 36 35 33 34 37 36 37 35 33 31 29 29 30 30 29 30 32 34 34 34
47 44 46 46 46 46 45 47 45 46 47 49 51 50 47 42 43 42 43 44 42 40 37 35 32 34 36 35 36 35 33 31 29 29 30 29 29 31 33 34 34 35 37
48 49 50 52 51 51 50 50 51 51 50 49 51 46 45 43 39 41 44 44 44 38 35 35 32 35 34 35 35 33 31 30 29 30 29 30 31 32 33 34 35 37 39
51 50 49 49 49 48 46 46 47 44 44 43 43 45 44 45 47 47 46 43 40 35 32 33 34 34 34 34 33 31 30 29 29 29 29 30 31 32 33 34 36 39 40
52 51 50 50 48 49 48 46 44 41 42 42 43 44 44 44 44 43 41 38 37 31 34 35 33 33 34 32 32 30 29 29 29 29 30 30 32 33 34 36 39 41 42
49 48 50 51 51 48 46 46 45 45 43 43 43 41 41 39 41 38 37 38 32 31 34 33 32 33 32 31 30 29 28 28 29 29 30 31 32 34 37 39 41 42 44
45 44 45 45 43 44 45 46 45 43 43 42 42 41 42 39 37 39 38 30 33 34 33 31 32 31 31 30 29 28 28 28 28 29 30 31 33 36 38 40 42 43 46
39 42 43 44 43 43 43 43 44 44 44 43 44 43 41 41 41 38 34 32 33 32 31 31 31 31 30 29 28 28 29 29 29 30 31 33 36 39 40 42 43 45 47
40 43 42 40 40 40 40 39 39 37 38 39 36 40 41 39 37 28 31 33 30 30 30 30 30 30 29 28 28 29 29 29 30 32 35 37 40 41 43 44 46 47 50
41 45 43 41 40 40 39 37 37 34 32 33 38 36 36 32 31 30 31 29 30 29 30 30 29 29 28 29 29 29 29 30 32 34 37 40 42 44 44 45 47 49 50
39 38 45 44 43 45 46 47 43 41 41 39 36 34 30 31 30 30 28 29 29 29 29 29 29 29 29 29 29 29 30 31 33 36 39 42 44 44 44 46 48 50 50

GFSMA_500_spd_096.txt.gz
Wind_Speed
19 18 17 15 14 14 13 13 13 13 14 15 16 16 18 18 20 21 22 22 24 26 29 32 32 32 31 30 30 29 29 27 26 26 25 23 24 26 27 28 27 27 28
21 21 19 19 18 17 16 16 16 16 17 17 18 19 19 20 21 23 22 25 26 27 30 32 34 33 32 31 30 30 29 27 28 27 24 24 26 28 28 30 30 30 31
24 24 22 22 22 21 20 20 19 19 19 19 20 20 21 21 23 25 25 26 28 29 32 33 37 33 32 31 30 32 30 28 27 26 24 25 28 29 30 31 32 32 33
29 28 26 27 26 24 24 23 22 21 21 22 21 21 21 22 23 25 26 28 29 31 34 35 40 34 34 31 29 30 30 30 28 27 26 27 30 31 33 33 33 34 34
34 33 31 30 28 28 27 25 24 23 23 22 22 22 22 23 25 27 28 29 29 33 35 36 41 34 33 30 31 31 29 28 27 28 27 29 32 34 36 36 35 36 33
38 39 35 33 33 32 30 28 28 26 25 24 24 23 20 24 26 28 30 32 33 33 34 40 40 35 32 29 31 31 30 30 28 29 29 31 34 35 36 36 36 35 32
42 41 41 40 39 36 33 32 31 29 28 26 24 23 24 27 27 29 31 34 36 34 36 42 39 36 31 29 32 32 31 30 30 31 29 33 35 38 37 35 31 31 30
46 45 47 45 44 40 39 37 34 33 30 28 27 26 26 29 28 31 32 34 36 36 39 44 42 39 35 32 35 34 33 30 31 31 32 33 36 38 38 35 30 30 26
42 47 49 49 47 44 44 41 38 37 35 31 29 30 30 28 31 31 32 33 35 37 42 47 45 38 35 35 34 36 32 31 30 30 34 36 37 37 37 33 29 28 27
38 41 42 48 51 47 46 45 43 41 35 35 32 31 30 35 31 32 34 36 37 39 46 45 39 38 35 36 38 36 31 32 30 32 35 36 37 39 34 30 27 26 28
45 38 42 44 50 53 55 52 50 48 47 40 33 31 32 34 40 32 36 39 40 44 43 41 37 36 37 39 38 33 31 31 32 32 35 35 37 35 31 30 26 27 27
50 51 49 47 50 55 56 45 35 30 32 33 29 31 34 39 31 35 38 41 45 45 39 39 38 37 39 39 35 32 30 31 33 34 35 34 34 31 28 27 26 28 28
46 52 55 55 48 53 57 60 51 50 45 40 37 38 39 32 35 36 36 42 45 40 38 39 38 40 40 37 35 33 30 33 33 34 34 34 31 28 26 26 28 28 27
46 48 55 48 47 47 51 58 61 50 51 42 39 37 37 39 38 38 41 44 42 39 37 37 39 43 40 37 34 32 32 34 33 34 33 31 28 27 26 27 26 26 27
46 46 47 49 53 47 47 52 47 39 37 37 38 42 41 38 38 41 43 43 40 39 39 37 39 40 38 36 34 31 34 33 34 32 31 28 27 27 26 26 26 27 28
50 50 49 46 42 43 44 42 41 40 40 42 45 40 37 39 40 43 46 44 40 40 41 38 39 39 36 34 33 33 31 33 33 30 28 27 26 26 26 27 27 28 29
52 50 52 51 46 48 46 47 42 41 40 40 40 40 42 44 45 44 42 42 40 39 40 43 40 38 35 32 32 33 30 32 31 29 27 26 25 25 27 27 27 28 30
56 55 52 49 47 47 46 45 45 44 46 46 44 44 44 43 43 40 41 41 42 44 47 43 38 36 31 31 32 30 29 30 29 28 27 25 25 26 27 27 28 29 32
63 65 51 47 48 49 47 45 46 45 44 43 41 38 36 36 38 39 40 42 41 41 40 40 35 33 31 32 30 30 29 29 29 27 26 25 25 27 28 28 29 31 32
47 48 49 51 51 51 49 47 46 45 42 42 42 40 38 38 40 41 41 40 39 39 36 36 32 30 33 30 30 30 28 29 28 26 26 25 26 28 28 29 31 33 35
49 48 52 54 55 51 49 50 47 47 48 45 41 41 42 42 42 41 39 35 37 35 36 35 30 35 31 29 30 28 28 28 27 26 26 26 27 28 29 31 33 36 37
47 47 48 45 45 47 46 47 46 45 42 41 42 42 43 42 43 42 41 41 38 39 36 30 30 34 29 30 29 28 28 28 28 27 27 28 28 30 32 34 37 37 38
46 46 47 44 44 40 42 41 41 40 41 42 43 44 44 44 43 42 38 35 35 36 30 28 33 29 29 29 28 28 28 28 28 28 28 29 30 31 33 35 38 40 40
43 43 44 43 42 38 40 41 42 40 40 39 39 40 39 40 39 36 36 35 34 27 30 29 30 29 29 28 28 28 28 28 28 28 28 30 31 32 35 38 40 40 40
40 42 43 42 44 46 44 45 40 38 35 33 32 34 32 31 32 34 34 30 28 32 28 29 29 29 28 27 28 29 29 29 29 29 29 31 33 35 37 39 40 39 39
37 36 35 38 43 42 39 45 44 39 35 36 36 37 35 36 35 32 30 28 32 29 27 29 28 28 27 28 30 29 29 29 29 30 31 34 35 36 39 39 39 39 41

GFSMA_500_spd_099.txt.gz
Wind_Speed
22 20 19 18 17 17 15 14 14 14 14 15 14 14 14 14 14 15 16 17 17 19 22 24 28 31 34 30 28 27 25 28 28 25 25 23 22 23 24 26 27 29 29
23 22 20 20 20 19 18 17 16 17 18 18 17 17 17 17 17 17 18 18 18 20 21 24 28 31 35 31 30 29 26 28 30 26 25 24 22 23 25 27 29 30 29
24 24 24 24 23 22 21 20 20 20 21 20 19 19 19 20 19 18 18 19 20 22 23 25 28 30 34 30 29 30 29 30 30 27 26 25 24 25 27 28 31 32 31
26 28 27 27 25 26 25 24 24 24 24 23 22 21 21 21 22 21 20 21 23 24 26 28 31 32 37 32 30 26 28 32 32 28 28 27 26 27 29 30 33 33 33
29 30 30 30 30 30 30 27 27 27 28 26 25 24 23 24 24 21 21 23 24 27 28 29 32 34 37 30 31 29 31 32 30 27 28 28 27 28 30 31 34 34 33
32 33 34 34 35 33 33 33 30 30 30 29 28 27 25 26 24 24 24 26 27 27 30 31 32 35 38 36 29 27 30 34 32 29 28 29 28 28 30 32 33 34 34
35 37 38 39 38 37 38 37 36 34 33 32 32 30 27 28 27 27 26 28 30 29 30 33 34 36 41 35 29 28 30 32 34 30 28 29 28 29 31 32 33 33 30
38 37 40 35 43 43 43 41 39 39 38 35 34 34 31 33 32 31 29 32 35 32 32 34 36 37 38 34 28 25 30 33 33 30 30 29 29 30 32 33 33 29 29
40 41 42 38 38 40 45 46 48 45 42 38 38 38 37 36 35 33 31 37 32 33 32 34 35 39 38 32 29 28 33 35 31 28 30 30 30 33 33 32 29 26 27
44 42 41 40 33 34 41 44 39 44 44 40 40 39 40 38 40 35 35 31 36 32 32 33 37 37 32 31 29 30 34 33 31 27 26 30 31 33 33 31 27 24 23
49 49 47 46 46 42 34 30 30 38 39 42 43 48 35 35 35 35 38 37 33 30 31 34 37 34 33 31 31 34 35 33 30 26 29 30 30 32 32 30 26 23 22
52 43 45 47 44 46 47 41 36 39 42 45 43 35 38 36 39 39 35 30 33 30 32 34 35 33 33 32 33 35 34 32 31 27 31 30 31 30 29 27 25 24 24
43 43 51 44 45 50 43 47 51 48 50 42 45 44 37 47 34 32 32 33 33 33 35 36 33 33 33 34 35 34 32 32 29 28 31 29 30 30 26 25 24 23 21
56 50 47 46 50 50 45 47 45 47 40 40 48 58 53 38 34 35 35 35 33 34 36 36 34 36 36 36 36 35 32 31 29 30 30 29 28 28 25 23 22 21 22
48 48 61 43 47 46 45 44 47 44 44 40 42 42 36 37 37 38 36 36 36 36 37 36 34 37 36 35 37 35 33 29 28 30 30 29 28 27 24 22 21 22 23
62 60 60 52 46 45 48 47 42 42 41 41 37 36 38 38 38 35 37 38 40 41 36 34 35 37 37 40 38 34 32 29 28 29 29 29 27 26 24 22 22 23 23
56 52 49 47 48 47 49 51 50 47 44 44 44 40 42 41 41 40 40 40 41 40 35 36 37 39 40 38 35 31 29 28 27 29 29 28 27 26 23 22 22 23 23
57 54 52 53 51 49 51 47 48 48 45 44 43 43 43 43 43 41 39 37 36 34 35 36 37 36 35 36 31 29 28 28 30 29 28 27 27 25 22 23 23 23 24
51 52 54 61 52 54 51 52 55 51 47 46 44 41 39 37 35 36 36 36 35 36 37 36 37 35 33 31 30 26 28 29 28 28 28 27 26 24 24 25 24 23 25
43 47 48 46 40 44 46 47 44 47 47 47 45 43 41 40 38 38 38 38 38 38 38 35 34 32 31 32 28 26 27 30 29 28 28 27 26 26 25 26 25 25 28
39 40 45 49 45 47 52 47 49 51 50 50 49 49 47 44 44 42 40 40 41 39 38 36 35 37 36 28 25 27 27 29 29 27 27 27 26 27 27 27 26 27 29
39 39 42 43 45 46 47 48 48 50 52 53 51 51 49 46 43 43 41 42 42 40 39 37 35 35 32 26 26 28 27 29 28 27 26 27 27 27 27 27 29 30 32
43 43 43 41 42 44 45 45 45 46 43 40 41 42 41 43 44 43 44 44 42 39 36 33 33 33 27 27 28 27 27 28 26 26 26 27 28 28 28 28 30 33 35
42 40 40 40 40 42 43 44 44 44 42 40 42 41 41 42 40 39 40 40 37 35 34 33 33 28 27 26 27 27 27 26 25 26 27 28 28 28 28 30 32 34 36
37 38 39 38 38 40 41 44 43 43 41 42 45 41 37 34 33 33 30 29 29 29 31 30 28 29 28 27 26 27 26 25 26 27 28 28 28 29 31 32 34 37 38
37 38 38 37 37 38 35 33 37 43 43 40 41 45 41 42 39 33 36 34 32 30 29 30 29 28 28 27 26 27 26 26 27 28 27 27 29 30 32 34 37 38 38

GFSMA_500_spd_102.txt.gz
Wind_Speed
21 20 20 20 19 19 19 19 17 16 17 16 17 15 15 16 16 16 16 16 17 17 19 19 21 26 29 31 32 29 26 25 26 27 29 27 25 24 24 24 25 27 28
21 21 21 22 22 20 20 19 19 19 19 19 19 18 18 19 19 18 18 18 18 19 20 21 23 27 30 31 33 31 29 27 26 26 29 27 26 26 26 27 27 29 30
21 21 22 22 23 22 22 21 21 22 22 23 22 22 21 21 21 20 20 21 21 21 21 22 23 27 30 31 32 31 29 28 27 27 30 27 25 26 27 28 29 30 32
21 23 24 25 25 25 24 24 24 24 25 26 26 25 24 25 24 24 24 23 23 23 24 24 25 27 31 32 34 35 30 28 27 28 29 27 26 26 29 28 29 30 32
24 26 27 27 28 28 28 28 27 27 29 29 28 28 28 28 29 28 27 25 25 26 27 27 27 29 30 32 34 36 34 31 26 28 30 27 27 26 28 28 28 30 31
27 29 29 30 32 32 33 33 32 32 34 33 32 31 31 32 33 32 29 29 28 29 30 31 33 32 32 32 35 36 29 29 27 30 31 29 27 26 25 27 29 30 32
32 33 34 33 33 34 35 37 38 38 38 36 34 34 34 34 35 35 34 32 32 32 33 31 35 32 32 32 35 33 28 27 28 31 33 30 27 27 26 27 28 29 31
36 38 39 37 34 34 35 34 38 40 39 39 40 42 39 39 38 38 38 39 36 36 34 35 34 32 32 33 35 29 26 24 29 31 30 29 28 26 27 28 27 28 28
38 41 42 42 40 39 40 35 35 33 34 39 31 31 47 49 49 48 46 44 42 42 38 34 34 32 30 32 32 29 28 27 31 32 30 29 28 27 30 29 28 26 26
40 39 40 45 44 43 39 34 35 30 28 28 33 37 42 39 39 38 45 43 44 44 35 33 32 30 30 33 30 29 29 30 32 33 30 30 27 28 29 29 28 25 24
44 47 42 40 44 42 43 39 31 28 21 26 28 29 30 39 39 37 42 39 43 31 28 28 31 30 31 32 29 29 30 31 33 32 30 30 28 29 30 29 29 25 21
48 46 48 46 42 36 42 40 41 37 40 42 38 37 37 39 41 38 45 40 34 24 28 30 30 31 33 33 31 31 31 32 32 31 32 30 28 29 28 28 27 25 22
52 50 48 41 45 50 41 40 38 40 41 41 41 40 35 42 44 45 43 42 35 30 32 32 31 32 35 35 32 32 32 31 32 31 31 29 28 28 28 26 25 24 22
56 58 56 52 50 51 52 46 49 47 47 45 37 36 36 37 42 38 37 39 35 37 35 32 33 34 36 35 35 34 32 35 34 32 31 28 26 27 27 24 24 23 22
58 61 61 59 56 53 53 53 55 52 51 43 42 41 42 37 38 40 44 37 38 38 34 36 35 38 37 35 35 36 36 38 34 31 29 26 25 27 26 23 22 23 23
56 60 62 63 63 60 55 58 51 49 44 45 43 39 39 39 38 38 36 37 39 39 40 41 41 39 40 36 35 35 36 34 30 29 28 23 25 27 25 23 22 22 22
53 53 58 62 59 58 61 58 55 49 52 48 44 44 45 45 45 44 42 42 41 43 44 43 40 38 36 36 34 34 33 34 29 27 24 24 28 26 24 24 22 23 23
45 49 49 49 53 58 58 61 50 49 48 48 47 47 46 45 46 47 45 45 47 45 39 35 35 35 37 37 36 34 34 30 29 24 26 25 27 26 25 24 23 24 25
38 41 42 44 45 49 53 58 61 59 54 54 54 50 48 46 47 46 46 42 40 38 37 37 36 37 37 37 36 34 34 30 27 27 25 27 27 25 26 25 25 25 26
39 39 39 41 41 43 47 48 50 45 45 47 43 42 45 46 45 44 44 42 42 39 40 41 40 41 38 34 34 32 36 31 27 27 27 27 27 26 26 25 25 26 27
34 36 38 39 40 41 43 46 47 48 46 50 46 45 45 45 47 47 47 45 45 44 44 44 44 43 39 35 36 36 35 28 28 27 26 28 27 27 25 25 26 27 28
36 35 36 38 40 43 43 43 43 46 47 48 50 49 48 50 50 50 50 48 48 47 47 47 45 44 42 38 35 32 31 29 28 26 28 27 27 25 25 26 27 27 28
36 36 39 42 44 44 45 43 41 40 41 44 46 45 44 44 44 44 44 46 48 46 45 46 43 40 39 33 31 35 32 30 28 29 26 27 25 25 25 26 27 28 28
37 38 40 41 43 42 40 40 40 41 41 42 43 43 45 44 42 42 43 40 42 43 41 41 40 38 34 37 31 30 31 28 27 29 26 25 25 26 26 26 26 29 31
38 38 39 40 39 39 40 41 40 40 37 36 38 41 42 43 39 39 41 38 34 35 35 33 32 32 32 32 31 32 28 27 26 28 26 24 25 26 26 26 28 30 31
38 39 39 37 37 37 39 39 39 39 37 35 33 32 36 44 41 41 37 43 39 41 36 39 37 33 31 31 33 30 26 26 26 27 26 25 26 26 26 28 30 31 32

GFSMA_500_spd_108.txt.gz
Wind_Speed
17 17 17 18 18 17 16 16 16 16 16 17 18 18 18 18 18 18 18 19 19 21 23 26 26 27 27 27 28 29 33 33 31 31 30 28 26 25 25 26 27 27 26
20 19 19 20 20 20 19 18 19 19 19 19 20 20 20 21 21 20 20 21 22 23 25 27 28 29 28 28 29 31 36 35 34 32 31 26 24 26 26 28 28 28 27
23 22 22 22 22 22 22 22 22 23 22 21 21 21 23 24 24 24 24 24 25 26 27 28 30 31 30 30 32 33 38 35 33 32 29 24 21 24 26 26 27 27 26
24 24 24 24 24 24 24 23 23 23 25 26 26 26 26 27 29 29 27 27 27 28 29 29 28 30 33 35 36 38 42 37 35 33 27 22 21 24 25 25 26 26 26
26 25 24 23 23 22 22 23 23 24 26 27 28 28 30 32 32 33 31 29 31 30 28 30 29 29 33 36 37 38 41 42 37 34 28 23 21 23 26 25 26 26 26
24 24 24 23 23 22 22 22 24 25 26 27 28 30 33 36 39 39 33 32 35 35 36 37 35 32 34 37 38 39 40 41 36 36 33 26 25 24 25 24 26 24 26
25 24 23 24 23 24 25 27 27 27 28 28 30 32 36 40 37 36 37 35 38 41 40 43 41 43 41 43 42 41 41 38 36 34 31 30 28 27 25 24 24 25 24
27 26 26 25 26 26 28 31 30 30 33 33 35 36 41 43 37 32 31 34 34 32 31 36 35 36 38 40 41 43 44 32 33 32 30 29 27 26 26 25 26 25 24
31 27 24 27 30 31 32 33 33 35 36 35 34 36 39 28 27 23 26 30 29 34 30 35 35 36 37 41 41 43 46 33 31 31 29 29 27 27 27 26 26 25 22
35 32 35 31 30 34 35 36 35 34 32 30 37 35 31 22 19 24 27 28 30 30 32 33 38 41 43 41 42 41 33 34 34 32 30 29 27 27 27 28 27 26 21
20 24 23 27 31 33 38 33 28 32 35 33 35 21 25 36 29 27 29 29 32 33 34 39 38 41 46 47 46 35 34 38 35 35 29 28 28 28 28 28 28 26 24
25 25 29 29 39 30 33 35 41 42 45 43 48 46 44 41 36 34 37 36 36 32 37 33 34 35 33 37 33 38 38 37 39 35 31 29 29 29 30 28 29 26 23
29 32 33 33 35 37 39 42 45 44 45 48 50 50 47 47 47 41 43 47 48 41 38 33 28 31 31 31 32 31 35 34 35 35 33 31 32 31 29 28 27 27 24
33 32 32 34 36 38 40 43 45 49 50 49 50 50 51 50 54 55 48 45 47 41 38 33 36 38 35 35 37 38 36 38 34 35 36 32 30 30 28 29 26 25 23
32 32 33 35 38 41 44 47 50 52 53 54 53 52 50 49 52 53 54 50 45 42 37 40 42 40 39 42 41 43 42 42 40 38 37 32 29 30 30 30 26 24 24
35 35 36 40 43 46 48 53 56 59 58 55 53 52 51 48 46 48 47 47 45 50 52 46 44 43 42 44 45 45 44 41 41 37 33 30 31 28 31 29 26 25 24
37 39 39 44 49 50 52 54 59 59 54 49 48 46 46 46 46 45 47 49 48 47 47 45 41 44 47 46 45 44 43 41 38 32 32 32 33 31 30 28 27 26 26
42 41 42 45 51 52 53 53 49 43 41 42 42 43 44 46 48 48 50 51 52 49 51 51 49 52 52 52 46 43 42 39 37 35 34 32 33 31 31 29 28 27 26
43 43 42 48 50 46 34 32 32 34 36 39 40 40 42 42 43 45 49 49 53 54 54 54 56 54 52 44 44 43 44 44 41 38 33 31 31 30 29 30 29 27 27
43 43 45 49 38 32 29 30 32 34 37 39 40 41 41 42 44 44 46 49 51 51 51 50 51 51 46 49 46 45 47 46 41 37 34 34 29 32 32 31 28 27 26
45 46 43 41 36 31 30 32 34 37 39 40 42 44 45 48 50 49 47 48 48 49 51 52 52 47 45 46 44 44 47 45 40 39 38 34 30 31 31 29 30 26 26
46 47 43 40 36 35 34 36 38 40 42 44 46 48 47 47 45 44 44 45 44 44 46 47 48 47 48 48 47 46 47 45 41 38 35 36 34 32 29 33 27 28 26
48 44 41 41 40 39 38 40 41 42 44 45 47 49 48 47 45 43 42 43 44 43 43 45 45 44 43 41 36 36 38 36 35 35 34 29 28 31 35 30 27 26 27
48 44 45 45 44 42 42 42 43 44 45 45 47 47 47 46 44 42 43 42 41 40 40 40 41 41 38 34 33 32 33 34 35 32 32 33 35 32 28 27 27 26 27
47 46 46 48 47 45 44 44 46 46 46 46 44 45 45 45 43 41 40 40 40 38 38 39 37 37 38 32 36 33 35 32 32 35 32 30 33 28 30 29 27 25 26
47 47 48 47 48 47 46 46 46 47 46 45 44 46 45 44 43 40 41 39 39 37 35 36 38 35 35 34 37 39 38 33 33 34 32 32 30 29 32 27 24 25 27

GFSMA_500_spd_111.txt.gz
Wind_Speed
19 18 18 17 18 17 17 16 16 16 16 17 17 17 17 18 18 18 19 20 19 19 20 22 24 24 24 25 25 26 28 30 32 35 32 32 31 27 23 22 22 23 23
20 18 19 18 20 20 19 19 19 19 19 18 19 19 20 20 20 20 21 23 23 23 25 25 26 26 26 26 26 27 30 31 32 35 35 33 31 27 22 23 21 22 23
23 22 21 20 21 21 20 21 21 21 21 20 20 21 22 23 23 24 25 27 27 27 28 29 30 30 26 27 29 28 30 31 34 34 35 32 30 25 22 23 24 23 23
25 25 24 24 23 22 22 22 22 21 22 22 22 23 24 25 26 27 27 28 30 31 31 30 29 30 32 32 32 32 34 34 34 35 35 31 28 24 23 24 24 23 22
26 26 24 23 23 23 21 22 22 22 23 23 22 22 24 24 25 28 30 31 33 34 32 32 31 31 34 36 39 39 38 38 36 35 36 33 30 24 23 23 25 23 23
29 27 23 22 22 22 22 21 22 22 21 21 23 24 24 25 27 29 30 34 34 32 33 34 35 36 36 36 34 33 36 36 36 34 36 34 30 25 22 21 23 24 23
26 25 24 23 22 22 22 24 24 23 23 24 26 27 29 29 30 34 38 39 34 31 30 33 31 29 28 27 30 34 34 38 37 38 38 35 34 29 26 22 22 23 22
27 27 25 26 25 25 27 26 26 25 26 27 30 32 33 31 32 36 39 36 31 27 26 28 31 34 34 31 30 34 38 39 38 38 38 29 31 29 28 24 23 22 21
28 27 25 26 25 26 26 28 28 30 28 30 29 29 28 29 31 29 26 26 27 27 28 28 29 31 35 34 36 38 41 41 42 39 37 32 35 32 25 25 25 23 19
30 29 28 31 32 27 29 32 30 31 31 30 28 21 23 28 19 19 25 25 24 26 32 31 32 34 35 39 37 39 46 42 48 39 34 34 40 33 25 24 23 26 22
34 32 30 34 24 27 34 35 30 23 24 24 24 35 37 38 40 44 40 36 30 34 29 32 36 38 36 34 34 36 29 39 36 37 35 40 31 31 29 29 20 25 23
27 29 31 27 25 30 27 29 29 32 31 34 34 37 38 40 43 42 41 42 45 42 41 45 45 41 37 38 35 30 27 27 27 27 28 32 31 28 29 27 23 25 24
29 24 25 23 21 23 25 26 28 31 34 36 38 40 42 44 45 46 47 44 42 45 48 49 45 40 40 37 35 30 33 30 31 35 34 34 32 32 30 30 24 24 26
24 23 22 24 25 28 27 29 33 37 40 42 44 45 46 47 49 48 48 48 45 44 44 43 41 38 37 43 39 36 36 38 36 37 40 37 35 37 35 34 24 23 24
19 23 26 28 28 30 33 34 36 40 42 45 47 48 50 52 51 50 49 47 46 42 40 39 40 43 44 49 54 46 46 40 42 42 41 39 35 36 36 28 24 24 25
24 28 29 30 30 33 34 35 37 41 44 46 47 49 49 46 42 41 41 43 44 45 43 39 40 42 44 48 50 50 48 47 48 46 43 39 35 34 29 26 27 25 25
31 32 32 33 34 36 36 38 41 46 45 46 44 40 39 38 38 38 39 40 41 44 45 44 44 47 47 48 47 49 48 51 52 49 40 40 38 35 30 26 26 26 24
37 36 35 36 37 37 39 41 44 47 44 42 36 35 35 37 37 38 40 42 43 44 43 43 43 49 52 50 50 55 55 56 51 40 39 40 39 35 32 25 25 26 24
40 38 37 37 39 40 40 42 46 45 38 33 31 31 33 34 34 35 38 42 44 48 49 47 45 46 47 49 51 48 49 51 50 42 38 38 39 42 35 21 27 25 27
39 38 40 41 42 41 41 42 39 37 35 31 32 34 36 37 38 40 44 46 48 47 46 46 45 45 45 46 47 48 44 47 45 38 40 37 39 42 37 25 26 28 26
42 40 38 39 42 43 42 40 36 37 37 35 35 36 39 39 41 43 46 49 49 48 46 44 42 40 40 40 42 44 42 42 36 37 38 37 37 36 33 27 26 28 27
42 41 43 46 45 43 42 40 39 40 39 37 39 40 41 42 43 46 48 48 48 47 47 45 43 41 41 41 41 41 39 38 37 33 33 34 30 31 28 28 28 28 29
44 46 46 46 46 42 41 42 43 43 40 40 43 45 45 45 47 50 49 46 45 45 45 44 43 41 40 40 40 37 35 32 28 29 29 29 29 29 30 30 32 30 32
45 45 44 45 44 42 45 46 46 46 44 44 47 48 47 47 49 47 46 45 45 45 44 41 41 40 38 38 39 37 35 35 31 29 31 31 31 29 30 28 30 31 34
48 45 44 44 47 44 47 48 48 48 49 48 50 50 50 50 47 47 44 45 46 44 43 42 39 38 36 36 36 34 35 37 34 34 33 32 31 31 32 34 33 33 28
47 44 43 42 43 46 48 49 50 48 50 51 52 51 49 47 47 47 46 47 48 45 40 40 39 36 35 35 33 36 41 29 34 36 34 31 32 31 26 31 35 30 28

GFSMA_500_spd_114.txt.gz
Wind_Speed
25 24 22 21 19 19 18 16 16 17 17 18 18 18 17 17 18 18 19 20 21 22 24 25 26 26 26 27 28 26 26 26 28 30 31 30 31 29 29 26 23 23 22
27 26 24 23 21 21 20 19 19 20 20 20 20 21 20 20 21 22 22 23 24 26 28 29 30 30 29 28 27 29 29 28 29 31 32 31 30 31 30 27 23 22 22
28 27 26 24 23 23 22 21 20 21 22 22 23 23 23 23 24 25 26 28 29 30 31 31 33 33 31 29 27 31 33 32 34 35 33 32 30 30 28 27 24 23 22
30 29 28 28 26 25 24 23 22 23 24 24 24 25 25 26 26 26 26 27 28 30 32 32 36 35 34 32 33 34 34 33 33 30 32 31 31 30 27 28 26 24 22
33 33 31 29 27 25 25 25 24 25 25 23 24 25 24 24 23 24 26 28 29 30 32 34 35 33 34 34 33 31 30 28 31 34 34 33 32 32 27 25 24 22 23
33 31 30 29 27 26 27 25 25 26 23 22 22 23 23 24 26 28 29 30 32 35 37 38 36 34 32 30 29 30 29 29 31 34 35 34 33 34 27 24 24 24 24
34 33 31 29 28 29 28 27 27 27 23 24 25 24 25 27 29 30 32 34 35 36 37 33 35 35 32 31 32 34 33 33 31 34 34 33 37 39 33 27 23 24 22
34 34 33 32 30 28 28 27 29 29 24 26 26 25 27 29 30 31 31 33 32 29 27 26 27 27 31 33 35 35 37 38 37 38 36 40 40 39 39 35 31 25 24
35 35 34 31 28 28 28 31 29 29 27 27 23 25 30 29 28 27 27 23 20 27 29 29 32 30 31 31 32 36 40 42 39 39 38 33 39 39 34 35 30 28 26
41 41 37 30 29 28 31 30 29 26 26 28 27 25 19 21 24 25 27 34 36 35 34 33 39 34 31 33 39 38 42 37 40 39 31 39 32 30 27 26 28 29 32
44 38 34 33 30 25 29 30 25 34 23 13 18 19 21 22 27 29 30 32 34 38 37 37 37 40 45 47 46 47 42 40 41 37 31 30 27 30 25 30 31 28 26
47 41 40 35 34 32 33 27 28 11 17 21 21 24 28 29 30 31 33 37 40 41 42 40 40 44 43 46 49 48 44 41 44 39 34 31 31 32 33 32 35 28 26
50 43 38 33 36 36 28 11 10 16 17 21 22 27 31 33 36 38 38 39 43 45 44 44 43 42 42 42 43 43 41 41 48 38 42 40 38 37 35 37 34 31 30
41 40 33 35 43 28 11 14 16 19 22 26 29 33 35 37 38 39 42 45 45 47 43 41 42 43 41 40 39 41 43 44 44 47 52 47 45 41 41 40 37 36 36
55 47 36 34 20 15 15 19 21 24 28 29 31 34 34 34 36 38 44 46 43 38 36 36 40 44 46 44 43 41 45 45 49 57 57 51 47 43 44 43 39 38 39
31 29 22 14 16 21 23 24 26 28 29 31 32 34 33 35 37 35 36 35 36 35 35 35 36 37 39 42 46 48 46 48 52 44 47 46 49 49 48 46 38 39 31
27 24 28 22 23 26 27 27 28 30 30 32 33 37 36 34 32 31 30 32 32 32 32 34 36 40 44 45 44 45 47 51 52 49 47 48 49 48 47 42 37 34 31
33 33 31 27 28 28 29 30 31 32 32 31 34 38 36 33 29 29 30 31 35 37 37 37 39 41 43 44 45 44 44 47 49 49 47 43 45 48 48 38 34 36 32
36 37 36 32 31 30 31 32 33 33 34 35 36 36 35 34 33 32 32 32 35 38 39 41 42 43 44 45 44 43 42 43 44 46 43 43 42 43 44 36 35 37 36
37 36 35 35 33 33 35 37 37 36 36 36 38 39 37 37 35 32 33 34 35 40 43 44 44 42 42 44 45 43 41 40 40 40 38 37 34 36 38 38 29 32 42
37 37 37 36 37 37 38 37 36 38 39 39 41 42 38 39 37 38 37 40 39 42 45 45 43 43 45 44 43 42 43 42 41 41 39 35 35 32 34 30 25 29 37
34 36 38 39 39 39 38 38 41 43 43 40 43 43 41 41 41 40 41 44 44 45 46 45 44 43 44 44 43 42 42 41 40 39 38 36 34 29 29 24 25 29 34
38 40 41 41 41 42 42 44 45 45 43 42 43 44 43 44 43 43 45 45 46 47 47 45 45 45 44 43 43 41 41 39 37 37 36 37 37 31 30 28 27 26 31
41 42 43 44 44 44 45 46 45 43 45 44 43 45 46 45 43 47 48 48 47 47 47 47 46 47 46 43 41 41 38 35 36 35 36 39 30 29 30 31 28 30 32
43 43 44 45 45 44 45 45 44 43 45 42 44 44 44 44 45 48 50 50 46 45 47 49 48 47 46 43 41 41 36 34 34 33 34 38 37 36 37 32 31 30 30
45 45 44 45 43 42 43 45 41 40 45 47 45 45 44 44 46 51 46 46 47 47 48 49 48 45 43 43 40 39 36 36 32 32 34 32 32 29 29 30 27 30 33

GFSMA_500_spd_120.txt.gz
Wind_Speed
32 31 30 28 27 25 23 22 20 18 17 16 16 15 16 16 16 18 20 21 22 24 25 27 28 28 27 28 30 30 34 34 32 32 34 33 30 28 30 33 33 31 29
33 33 31 30 28 26 25 23 22 20 19 18 18 17 18 18 18 19 21 22 24 25 27 27 27 27 28 29 30 33 33 31 30 28 28 28 29 30 33 36 33 30 31
35 34 32 30 30 29 28 25 24 22 21 20 20 20 19 18 19 20 22 24 25 26 26 26 26 29 31 33 34 34 32 31 28 27 29 31 33 35 35 36 37 35 31
37 33 32 31 31 30 29 27 25 23 23 22 23 20 18 19 21 22 23 23 25 26 26 28 28 30 34 36 37 35 29 29 26 28 31 33 34 37 37 37 39 39 34
38 34 33 33 32 32 31 28 26 24 24 24 23 20 19 21 22 22 22 24 25 26 28 29 30 32 31 28 27 25 24 27 27 29 33 33 34 35 36 37 39 37 35
37 36 35 36 34 34 31 28 25 26 25 25 24 22 21 21 21 21 22 25 26 26 27 27 28 26 22 25 26 27 29 29 30 31 31 33 38 38 37 37 36 37 33
41 38 38 36 35 33 30 28 29 28 27 25 23 22 22 22 22 22 25 24 25 24 20 20 20 23 26 28 28 28 28 32 35 36 36 37 40 40 42 43 43 42 37
43 40 40 38 37 33 32 33 30 30 29 25 23 24 22 24 24 24 21 17 10 10 14 17 22 24 25 27 30 31 32 34 37 40 43 44 47 46 45 43 42 44 44
45 42 42 40 38 36 36 33 31 31 28 25 25 22 24 28 27 19 7 8 8 11 14 19 22 25 28 29 31 34 36 39 42 42 47 51 51 53 46 44 46 45 42
46 47 45 40 41 37 37 35 33 30 28 27 24 29 30 27 13 7 2 7 11 13 15 21 24 25 25 26 30 32 35 37 40 42 45 48 50 50 47 44 42 44 42
50 48 45 45 43 40 39 38 34 31 30 28 33 37 30 15 10 4 4 9 10 12 13 25 23 23 25 28 32 35 36 35 37 39 40 42 45 46 46 46 47 47 49
52 53 48 48 45 44 43 40 36 31 37 38 37 35 28 10 9 10 9 10 10 13 18 22 20 21 24 26 29 31 31 31 35 38 40 43 45 45 45 46 44 40 39
58 54 51 50 50 47 45 43 36 41 38 33 35 29 15 13 10 11 14 13 13 18 20 20 21 22 24 25 27 27 27 29 32 35 39 41 41 40 41 45 46 47 47
59 55 55 56 54 51 43 41 42 40 34 37 30 22 21 13 12 11 13 15 17 19 20 21 23 25 27 27 27 28 29 32 34 36 38 40 42 44 44 43 44 43 38
63 61 62 58 59 51 45 41 32 29 36 32 18 16 17 19 17 16 16 17 20 21 22 22 27 29 29 29 29 31 33 36 37 38 39 41 44 45 45 42 41 42 38
62 66 61 63 61 54 50 43 31 29 32 32 24 22 18 18 21 19 20 21 22 22 23 26 28 31 31 30 32 34 36 37 38 38 38 41 42 45 45 42 39 38 35
50 53 55 61 52 51 46 47 33 36 34 22 22 23 25 25 25 24 22 24 25 24 24 29 32 32 31 32 34 33 34 38 39 40 40 40 41 43 42 41 40 37 36
48 45 47 51 43 41 45 26 44 47 28 26 29 27 28 28 29 27 27 26 27 25 27 32 35 35 34 35 37 37 38 39 41 41 41 43 43 43 41 40 40 39 36
46 48 41 50 53 57 47 37 28 32 27 30 31 31 32 32 31 32 31 31 28 29 31 35 38 38 38 40 41 42 42 44 43 43 42 44 44 42 40 39 38 37 35
29 25 21 24 29 27 31 22 24 26 29 30 31 32 35 36 37 37 35 33 34 33 33 37 39 41 41 42 44 44 44 46 44 43 43 44 41 40 38 38 36 35 34
17 22 21 28 31 24 28 28 25 25 28 31 35 37 38 39 38 38 37 37 38 37 38 40 41 43 45 44 45 45 46 46 44 44 44 43 42 41 38 35 32 33 33
16 18 27 25 28 32 36 34 34 33 35 36 38 39 39 39 39 39 40 41 40 41 42 42 43 44 46 46 44 46 46 44 46 44 43 43 42 40 37 31 31 30 32
25 31 35 40 38 38 38 36 37 36 37 38 38 39 39 39 41 43 44 45 44 45 44 43 45 47 47 46 45 45 44 44 45 43 43 42 41 39 35 30 32 31 32
30 39 40 39 36 37 37 39 39 39 39 39 40 40 41 42 45 46 47 48 46 45 45 44 46 45 46 46 45 45 44 45 44 44 43 41 40 38 34 30 27 29 28
35 36 38 37 39 40 40 41 41 41 41 41 43 45 45 47 47 50 49 46 46 46 46 46 46 45 44 44 43 43 44 45 45 44 42 39 38 36 33 31 32 31 29
35 35 38 40 42 45 46 45 44 45 46 47 47 48 48 49 47 47 46 47 48 45 47 47 47 45 46 44 42 43 43 44 44 43 41 38 35 33 31 30 31 31 28

GFSMA_500_spd_126.txt.gz
Wind_Speed
38 37 36 34 31 29 26 25 23 22 21 21 20 19 18 18 18 17 17 17 19 20 20 21 22 23 24 23 24 26 29 30 25 21 20 22 26 31 33 32 37 38 41
41 39 38 37 33 30 28 26 25 24 23 22 22 21 19 19 20 19 19 21 21 21 20 21 23 23 24 25 25 26 29 25 24 23 23 26 28 32 35 40 40 40 43
45 41 40 38 35 31 29 28 26 25 25 24 23 22 21 21 22 22 22 22 22 22 22 21 22 24 24 25 26 27 25 23 23 23 23 28 32 34 38 40 45 47 48
47 46 43 40 36 32 31 30 29 27 26 26 25 24 23 24 24 24 23 23 22 22 22 22 23 25 27 26 23 20 22 22 20 21 24 29 34 38 41 43 48 49 47
50 49 46 42 37 33 33 32 31 30 28 27 26 26 25 25 25 25 24 24 23 20 21 24 24 27 22 16 17 18 20 21 24 28 29 31 35 37 38 42 44 44 44
54 53 49 45 38 35 35 33 32 32 30 28 27 27 27 26 25 25 23 24 22 23 23 25 27 17 16 13 14 17 21 23 25 28 29 32 33 36 39 43 45 47 48
60 56 51 46 40 38 35 36 34 33 32 30 28 28 28 26 26 25 24 24 21 20 25 28 19 18 16 16 16 17 19 21 23 24 27 28 28 31 33 39 41 44 44
60 57 52 45 41 41 39 36 36 36 33 31 30 29 27 28 28 28 26 25 23 24 24 17 16 16 14 13 13 14 15 16 19 22 22 25 28 31 33 37 37 38 40
56 57 53 46 45 45 39 39 39 37 35 33 33 29 27 32 29 29 29 26 25 26 20 17 16 16 16 16 12 12 12 15 17 18 21 26 29 33 36 38 40 39 39
61 59 52 48 47 46 44 42 41 39 37 35 34 31 31 34 31 30 30 32 31 20 18 20 18 15 12 12 12 10 13 14 14 22 26 29 33 35 37 39 41 41 40
60 56 54 51 51 48 46 44 42 39 37 39 38 36 37 33 34 32 36 37 27 23 26 22 22 19 14 13 14 13 15 14 20 25 28 33 36 38 39 41 42 44 41
66 60 57 55 53 50 48 45 42 43 44 44 42 37 41 35 37 37 39 34 30 27 28 26 26 22 17 17 17 18 17 18 23 23 27 35 40 41 41 42 43 44 46
65 66 62 61 56 53 50 47 50 43 47 45 44 47 41 43 39 42 34 27 30 32 34 30 29 26 25 24 22 23 21 22 24 28 33 40 42 42 44 43 43 45 47
65 65 64 61 58 51 50 53 50 48 50 48 49 49 44 50 45 35 32 30 33 37 37 35 33 33 33 34 30 27 26 26 30 37 39 42 43 44 45 44 43 44 45
66 72 68 62 56 54 55 56 51 49 51 52 55 48 48 50 43 35 33 31 39 41 39 35 34 32 37 39 35 32 31 31 34 39 43 44 46 46 47 45 45 45 45
65 69 65 60 56 58 58 58 52 53 54 54 49 49 51 51 44 36 37 38 44 41 35 35 35 42 43 43 38 36 34 34 37 41 45 45 47 48 48 48 47 47 46
58 70 64 59 57 63 65 56 56 55 54 50 54 54 54 46 33 37 40 44 47 43 40 39 42 44 43 44 43 42 40 40 42 44 47 48 50 49 49 48 48 48 46
49 62 69 63 56 66 55 65 56 57 53 55 57 54 54 50 40 35 47 51 45 47 45 47 47 45 44 45 47 45 44 47 47 48 50 49 49 49 48 48 47 47 48
34 36 44 59 60 61 46 61 52 51 52 56 59 54 49 45 40 40 49 45 50 54 50 49 47 46 45 47 47 46 47 49 49 49 50 50 48 49 48 47 47 48 49
41 43 46 45 48 48 56 51 48 46 55 47 49 50 50 37 44 52 48 49 53 55 52 50 50 48 48 50 50 50 50 51 51 52 53 52 51 50 49 48 46 48 48
25 34 36 44 49 45 41 46 44 45 44 46 48 51 49 51 51 51 51 47 52 52 53 54 54 55 54 53 53 53 53 52 53 54 54 52 51 51 50 48 48 50 49
40 13 9 12 22 34 22 28 33 36 50 51 56 58 64 42 38 34 49 52 51 57 59 57 56 59 57 57 56 56 55 54 53 54 52 53 51 51 49 49 47 49 48
8 9 12 21 22 36 20 38 41 50 46 37 36 33 41 46 43 43 48 52 55 58 58 58 60 61 58 60 58 59 57 56 54 55 54 54 53 52 50 47 50 50 46
17 22 23 26 34 43 36 41 46 49 46 42 36 38 45 52 49 53 50 52 55 58 59 60 61 61 59 59 57 57 58 56 54 54 54 52 53 51 49 49 49 47 46
22 30 27 30 36 35 42 43 42 49 46 44 44 48 51 50 51 50 51 55 57 57 59 59 58 57 59 58 58 57 54 53 52 52 52 53 53 52 50 48 46 45 41
31 35 41 38 36 44 43 44 48 53 57 51 49 52 53 53 53 53 54 54 54 55 56 57 58 59 60 60 58 54 54 53 52 53 54 52 51 50 48 44 44 42 39

GFSMA_500_spd_129.txt.gz
Wind_Speed
44 39 34 33 32 31 27 25 25 24 24 22 20 21 20 18 18 18 18 18 20 21 23 22 23 25 24 25 26 27 27 27 22 22 23 21 24 29 32 35 38 41 42
45 44 38 35 33 32 30 28 27 26 24 24 23 23 21 20 20 20 21 20 22 24 23 23 24 25 23 26 28 28 25 20 18 19 21 24 27 31 33 33 36 41 44
50 49 44 38 35 34 33 30 28 28 27 26 25 24 24 22 22 21 22 22 24 24 23 24 24 24 24 26 26 24 18 15 16 17 22 25 28 30 27 33 36 39 42
46 51 48 42 39 36 34 32 30 31 28 27 27 26 25 25 23 23 24 25 24 24 24 22 23 25 26 26 21 21 17 19 17 17 22 26 22 25 30 32 34 36 39
40 52 51 49 42 38 37 34 32 32 31 29 28 27 27 26 25 26 25 26 24 25 23 22 24 27 26 19 17 18 18 21 20 24 24 20 23 27 30 31 34 37 42
40 49 55 53 47 42 40 37 35 34 33 30 29 28 29 28 27 27 27 25 26 26 24 24 24 26 21 18 18 19 20 18 19 19 22 20 21 25 28 32 37 38 43
40 51 60 57 50 44 42 41 38 36 33 33 31 29 30 29 29 29 28 27 28 28 26 25 27 23 18 18 20 20 19 16 16 18 17 17 21 23 28 32 38 40 42
47 46 53 55 52 47 45 44 41 38 37 35 33 32 31 30 31 30 28 29 30 30 29 28 30 21 20 19 21 20 16 15 15 18 18 18 22 27 31 34 37 42 44
46 48 55 61 54 52 49 48 44 41 40 38 37 34 32 32 33 30 30 32 32 32 32 29 28 22 23 23 24 20 16 16 17 19 20 22 27 30 36 38 40 43 47
48 52 56 57 57 48 54 50 46 45 43 41 39 35 34 33 34 34 36 35 36 34 33 31 27 27 28 25 21 19 18 18 20 20 19 24 29 32 37 39 43 46 47
54 49 57 67 66 65 59 52 49 46 45 43 41 38 38 36 35 39 42 39 38 36 38 33 29 31 30 27 23 22 20 21 22 22 21 25 31 36 39 43 46 48 50
57 54 62 55 59 62 58 53 49 48 47 47 44 43 40 38 38 42 46 44 42 41 41 37 34 36 34 31 28 25 23 25 25 26 27 28 32 39 44 47 48 51 51
58 55 59 57 51 54 56 53 52 52 49 49 46 45 44 44 38 44 50 46 42 43 38 34 36 38 36 34 32 30 30 30 29 30 29 31 34 40 45 49 51 53 53
57 57 52 56 58 63 59 55 54 54 53 51 49 51 52 41 44 50 51 53 43 43 41 37 37 41 39 37 38 37 36 38 37 35 34 32 36 43 47 49 50 52 52
55 52 64 63 63 61 58 58 57 59 57 57 51 53 50 42 49 51 47 53 41 36 40 38 36 43 44 42 41 42 41 42 42 43 39 36 39 43 47 53 54 53 52
52 57 59 60 59 63 63 61 61 64 63 58 53 60 48 47 55 56 50 45 44 36 37 39 42 45 45 44 44 42 46 48 49 48 45 43 44 47 49 53 56 54 51
52 57 69 65 64 70 69 67 70 65 62 60 55 61 50 50 52 54 51 50 40 39 43 40 43 50 48 47 45 47 51 53 51 49 50 48 50 51 52 55 56 55 53
51 53 63 65 68 61 70 75 68 63 62 60 60 61 51 52 58 57 54 53 39 42 45 48 50 52 53 51 50 51 52 51 50 51 52 52 52 53 56 58 59 56 51
47 51 59 63 65 66 67 65 67 60 55 53 61 54 51 55 57 56 56 46 49 53 43 48 52 52 58 58 56 55 55 53 52 53 54 54 54 55 55 59 60 56 54
39 37 43 40 40 42 42 56 54 48 44 48 47 57 53 59 44 47 48 43 39 41 46 53 55 55 58 61 60 57 55 55 55 55 54 55 56 56 59 60 60 60 54
35 30 29 34 37 38 37 41 49 49 51 49 48 52 54 46 52 51 48 48 51 50 53 54 55 56 62 67 66 62 57 57 59 58 58 57 58 58 60 60 58 57 54
22 30 32 35 34 34 42 42 43 41 38 50 50 53 46 49 48 51 53 53 54 49 54 57 54 57 60 65 64 64 61 60 59 59 57 59 59 59 62 60 57 57 53
25 24 22 19 25 18 20 25 36 37 38 33 39 43 47 50 54 52 54 55 61 59 56 47 54 57 59 62 63 64 64 59 59 57 57 59 58 60 59 56 55 54 53
10 9 15 17 23 17 25 28 38 30 37 46 52 53 47 54 58 60 66 66 59 59 56 51 58 61 58 58 61 63 61 60 58 56 57 60 59 60 56 54 54 54 51
13 12 16 20 22 21 31 37 40 46 37 49 54 54 60 60 52 55 63 59 52 62 60 57 59 60 62 62 62 61 60 59 57 58 58 60 58 57 54 52 52 52 48
24 25 25 31 36 41 37 43 48 55 51 55 57 58 59 57 58 57 62 58 59 59 62 61 63 64 66 66 67 64 61 61 61 62 61 57 55 55 52 51 48 44 42

GFSMA_500_spd_135.txt.gz
Wind_Speed
26 26 30 34 32 30 28 28 28 23 20 19 17 18 19 19 18 17 17 16 17 17 18 20 21 22 23 24 25 25 26 17 14 13 19 21 22 25 22 27 29 27 34
26 27 29 34 35 32 31 31 30 30 24 22 22 20 21 21 21 20 19 18 18 18 20 21 23 22 23 25 26 26 25 15 13 14 16 21 24 22 23 27 26 31 33
28 29 28 31 38 37 34 34 32 31 31 26 24 24 23 23 23 22 21 20 20 20 21 23 24 23 23 26 28 28 22 16 14 13 14 21 21 22 25 26 28 31 33
35 33 34 30 33 38 36 34 34 33 33 30 27 26 26 24 24 24 24 23 22 23 24 24 25 25 23 26 28 29 26 20 17 14 17 21 21 21 24 22 26 30 32
40 35 36 35 33 35 39 35 33 33 35 34 29 27 27 26 26 27 26 25 25 25 26 25 26 27 24 26 26 29 27 22 21 21 21 22 23 23 21 23 27 28 30
44 42 41 39 35 30 33 39 39 37 37 38 34 29 27 29 29 29 29 28 28 28 28 27 27 29 26 27 27 29 26 27 25 23 24 23 25 24 24 25 28 28 30
50 46 43 42 40 36 32 33 41 40 38 37 37 31 30 31 31 31 32 31 31 31 30 29 29 30 28 28 29 29 29 31 29 26 26 25 25 25 24 24 28 31 31
55 52 47 45 44 42 39 32 31 38 41 40 38 37 34 33 33 34 35 34 35 33 33 31 32 32 32 32 32 31 32 32 33 30 29 28 25 26 26 26 28 31 33
59 56 51 50 48 49 46 45 36 34 40 45 43 42 37 36 37 38 39 39 37 36 35 34 33 36 36 34 36 38 36 34 34 32 30 29 28 27 28 27 29 31 33
64 60 57 51 43 50 39 42 40 38 35 41 46 47 45 41 41 41 42 41 40 37 36 36 37 37 40 38 40 42 41 37 36 37 35 32 30 29 30 30 32 32 35
70 64 62 58 50 43 43 47 40 43 42 41 42 49 47 47 46 46 45 44 41 38 37 39 41 40 42 44 42 40 42 43 40 40 37 36 34 32 32 32 34 34 37
75 73 69 69 64 59 57 49 42 37 47 43 41 47 55 56 51 51 50 49 44 39 40 41 45 42 45 48 43 44 43 42 42 42 41 40 38 36 34 36 38 39 39
80 78 72 71 66 62 58 55 51 41 40 55 39 42 46 59 57 53 54 48 46 43 42 47 48 45 49 48 44 46 45 44 42 43 46 44 42 41 40 41 40 40 40
83 80 77 73 67 64 65 57 54 47 44 42 57 54 46 56 56 60 59 53 50 49 51 50 52 47 55 51 42 39 42 42 41 42 45 45 44 43 45 43 44 43 43
82 80 77 72 68 58 60 56 53 49 46 47 49 58 52 52 59 70 64 53 57 57 53 54 55 51 56 50 47 45 43 42 40 40 43 46 44 44 44 44 43 42 42
81 77 74 71 68 64 61 55 50 54 50 49 49 54 54 55 63 61 63 58 62 57 53 56 56 55 54 55 51 46 43 42 42 42 44 46 46 47 47 46 44 41 41
79 75 74 74 68 65 59 54 54 52 52 50 49 50 58 61 58 61 63 66 64 57 49 52 51 52 50 50 49 53 47 45 44 47 47 44 45 49 50 50 46 45 42
76 72 72 72 66 60 58 56 55 52 47 53 53 53 58 63 62 66 64 67 66 59 54 50 54 55 50 50 53 45 44 47 50 51 49 50 49 50 51 53 51 48 46
74 69 64 63 61 55 54 52 53 49 45 51 50 49 63 62 70 72 65 57 55 52 50 50 47 49 38 46 40 41 40 40 46 47 46 48 50 51 50 52 55 55 48
65 65 62 56 52 49 49 47 49 47 49 55 54 54 56 61 59 54 52 55 59 52 52 55 50 51 47 46 50 45 46 48 40 41 48 51 53 53 55 56 57 58 59
47 52 49 46 44 42 45 43 42 44 50 48 60 55 55 56 53 53 57 59 60 57 55 54 54 53 56 56 54 52 50 50 48 47 48 50 52 52 55 55 57 58 59
25 31 31 34 40 42 42 39 48 50 51 50 52 53 53 57 55 54 59 57 54 53 53 51 51 52 56 58 57 59 61 57 53 54 54 56 55 53 50 49 52 56 56
28 29 35 37 36 40 41 39 44 48 51 53 53 53 53 55 55 53 57 55 55 54 56 57 55 55 57 59 60 64 62 56 60 62 65 65 59 60 56 54 53 52 51
22 24 19 19 26 32 32 36 34 32 37 41 43 45 46 49 53 54 57 57 56 57 58 54 56 57 63 62 61 65 66 65 68 73 73 71 64 61 62 58 55 54 52
9 15 8 8 10 6 8 14 20 24 30 30 34 38 42 46 48 51 52 56 57 54 56 57 56 61 59 58 63 66 73 74 73 74 70 65 61 62 64 62 58 55 45
24 21 19 15 13 12 14 19 22 27 35 41 47 49 51 48 49 54 54 52 56 59 63 64 66 68 68 73 70 68 72 72 64 56 60 59 59 61 59 54 48 43 38

GFSMA_500_spd_138.txt.gz
Wind_Speed
18 22 23 25 28 30 30 29 27 26 25 25 23 21 19 19 18 18 18 18 17 17 18 20 22 22 24 23 23 24 24 25 15 15 19 19 20 25 24 26 26 27 30
25 24 25 24 26 28 31 30 30 28 26 28 27 25 23 22 22 21 20 20 19 19 20 21 23 24 25 24 22 24 24 25 18 16 19 19 21 23 24 27 25 27 29
30 29 28 27 28 28 31 32 31 30 30 30 30 30 29 27 25 24 23 22 22 21 22 22 24 25 26 25 24 24 24 25 23 18 18 18 21 22 23 24 24 27 28
37 35 33 30 31 30 29 32 35 34 33 32 31 32 31 29 27 26 26 25 25 25 24 24 26 27 27 27 25 26 26 27 26 22 20 20 22 23 22 23 25 27 29
41 40 39 37 35 34 32 29 34 37 37 35 32 32 32 31 29 28 28 27 28 28 26 27 28 28 28 29 28 26 28 27 28 25 26 24 24 25 24 24 25 27 26
46 45 45 43 40 37 36 31 33 37 38 39 36 34 33 34 32 32 31 30 31 31 30 29 29 30 30 31 32 27 28 29 30 28 29 28 27 27 26 26 26 27 27
53 51 50 48 44 42 39 36 36 34 37 42 42 37 36 36 37 35 34 34 34 33 33 32 31 31 31 32 33 31 30 32 31 34 32 31 30 30 29 27 27 28 28
59 58 55 52 48 47 42 41 39 36 35 36 40 43 39 38 37 37 38 38 37 37 36 35 33 34 34 33 34 34 33 35 34 35 36 33 32 31 30 29 28 31 31
64 62 61 55 53 54 48 46 43 40 39 37 32 36 39 40 41 40 41 41 41 41 40 38 37 36 36 35 36 38 35 36 36 37 36 34 35 33 33 31 31 31 32
67 67 63 61 60 59 56 50 47 44 45 41 36 33 34 42 44 42 43 44 45 45 45 40 40 39 39 38 37 39 39 38 41 40 37 38 37 36 36 33 33 33 34
73 71 70 64 63 65 59 55 51 51 51 46 43 39 39 34 40 45 46 49 51 51 49 45 44 43 42 41 39 41 42 43 47 47 43 40 39 36 37 36 35 36 37
77 75 67 69 68 65 62 59 52 56 49 48 42 40 43 35 40 39 45 42 57 55 52 50 50 47 45 42 43 42 45 47 49 47 44 42 40 36 37 39 41 40 39
83 79 79 76 72 71 68 63 53 46 52 45 46 43 40 43 39 40 46 47 45 57 60 54 54 47 46 48 48 49 49 51 51 46 43 41 41 39 38 38 39 41 41
88 84 81 80 74 73 73 68 68 54 54 55 48 48 41 44 48 49 52 51 58 51 62 59 56 53 53 54 55 55 52 52 54 50 49 45 42 40 38 39 38 39 39
91 89 87 84 81 77 76 72 72 67 60 50 54 52 49 49 50 50 55 57 60 56 56 61 65 66 55 58 62 56 55 52 57 54 52 48 45 44 43 39 39 40 42
92 90 89 86 84 81 77 75 72 65 61 60 57 56 57 51 52 56 55 58 61 58 59 62 68 63 58 57 61 58 58 55 51 47 51 50 48 47 47 44 40 40 42
90 89 87 85 82 80 76 72 67 61 60 57 59 59 61 56 53 56 59 59 56 59 62 64 61 60 53 50 50 50 49 51 47 48 46 46 46 47 45 47 47 43 43
82 81 83 83 78 73 73 68 65 61 59 58 56 59 64 63 57 60 63 60 61 63 72 73 67 62 57 56 54 53 50 51 50 38 38 41 39 45 41 42 43 46 43
65 74 77 77 73 69 67 67 65 63 61 60 57 59 59 65 65 64 65 60 62 69 72 69 61 60 54 54 55 55 50 50 53 48 46 40 45 41 38 38 39 44 45
42 62 66 66 67 65 65 66 65 63 59 55 56 57 65 65 67 64 67 55 58 71 78 64 65 65 59 54 54 56 57 55 55 56 58 53 47 45 42 43 41 42 44
30 48 52 55 57 57 58 61 59 54 50 52 58 65 68 72 71 72 71 64 61 62 61 58 58 59 60 61 59 57 63 62 61 62 62 63 57 54 51 50 48 46 46
15 24 34 39 46 51 46 46 43 41 48 56 61 65 69 70 73 61 55 52 56 55 58 61 62 61 60 58 60 61 60 63 63 64 67 64 62 59 55 58 55 53 54
26 14 14 25 31 36 38 40 45 51 57 58 59 57 57 57 52 53 52 52 56 56 58 59 63 66 63 63 62 64 65 62 58 62 65 63 63 60 60 60 61 62 63
14 17 18 14 20 25 26 37 41 42 47 48 49 36 37 35 37 38 42 45 52 56 56 58 62 63 66 68 69 72 66 68 71 71 71 73 70 67 65 68 64 67 66
32 22 22 19 14 14 10 9 13 14 14 16 23 26 25 30 34 41 46 52 53 53 54 57 56 61 64 68 67 69 72 72 71 70 67 64 65 67 71 69 68 68 60
31 30 27 23 21 16 14 13 13 17 20 22 25 29 34 38 43 46 48 48 52 57 59 60 62 66 67 64 64 73 73 72 73 73 73 70 65 70 67 65 65 57 51

GFSMA_500_spd_141.txt.gz
Wind_Speed
14 18 30 24 25 25 26 27 27 24 23 22 23 23 22 21 20 21 22 21 20 20 20 19 20 21 21 22 22 22 21 22 21 22 22 21 21 19 20 22 24 25 28
22 21 20 23 24 24 25 27 28 27 26 26 25 25 26 26 24 25 24 25 24 23 22 22 22 23 24 24 23 23 22 23 21 22 21 22 21 20 21 21 23 25 26
28 26 25 25 25 26 24 26 27 27 29 29 29 28 27 28 28 28 28 27 26 25 25 25 25 25 26 26 26 25 23 22 22 22 22 22 23 22 23 22 22 24 25
34 32 29 29 29 29 28 27 26 26 30 31 31 30 29 29 29 29 29 29 29 29 28 27 28 28 28 29 28 27 27 23 24 24 24 25 24 24 23 24 22 23 25
38 37 36 34 34 32 31 30 30 29 29 33 34 34 33 32 31 31 31 31 31 31 31 30 30 30 30 31 30 30 30 27 25 26 27 27 28 28 25 25 24 24 23
44 43 42 40 39 37 35 35 35 33 31 32 33 35 35 34 34 32 33 34 35 35 35 34 33 33 32 33 32 31 31 30 27 27 26 29 29 30 27 25 25 26 24
51 48 46 45 45 43 40 38 39 38 36 34 34 34 36 36 35 34 34 35 37 38 37 37 36 36 35 35 34 33 32 32 29 29 30 31 32 31 30 27 26 26 26
54 51 49 48 49 47 47 45 42 41 41 39 38 35 33 36 40 40 39 40 40 39 39 40 38 38 38 38 37 36 35 34 34 33 34 33 34 34 33 33 29 27 26
60 58 55 51 51 53 51 51 49 45 44 44 41 40 36 33 35 35 40 41 41 42 41 41 40 41 41 40 41 40 39 38 37 35 38 40 39 40 39 35 33 32 29
67 66 63 59 55 56 56 56 54 48 45 46 45 43 40 38 34 31 35 39 44 45 45 45 44 44 44 43 43 43 42 42 43 41 41 43 43 44 41 37 34 32 32
73 72 71 67 63 60 58 60 61 56 53 52 50 47 46 42 41 39 32 35 40 45 48 46 43 50 53 47 48 46 46 45 45 50 46 46 45 45 42 35 35 35 33
78 77 74 73 69 67 64 63 63 60 58 58 55 52 54 51 47 44 40 37 40 37 42 45 41 46 49 56 53 54 47 50 49 53 50 48 48 47 44 40 37 37 36
85 83 80 78 75 71 68 67 66 65 63 62 59 52 53 49 46 42 45 46 40 41 42 44 51 52 52 55 56 58 54 50 54 55 55 52 49 49 49 44 40 39 38
92 89 87 84 81 79 75 71 69 68 68 64 59 56 50 56 49 45 44 44 47 46 49 46 55 54 52 54 55 58 61 57 63 60 57 56 52 51 51 45 42 39 38
94 95 93 92 89 87 84 77 72 69 70 67 65 59 52 51 47 51 53 49 48 51 50 52 50 54 58 58 56 57 58 61 61 65 62 59 52 46 44 40 42 42 39
89 91 92 90 88 88 83 77 75 77 75 68 64 65 63 45 46 48 50 57 55 54 54 56 57 59 58 55 56 60 60 56 56 55 50 43 41 40 43 45 42 38 39
85 86 88 88 84 82 78 78 79 75 74 73 70 61 54 63 65 58 60 61 57 63 62 57 59 61 61 61 63 65 64 59 55 53 49 46 44 43 39 36 36 34 36
82 83 82 81 80 80 74 74 72 76 76 69 69 67 64 66 66 65 63 67 62 64 70 71 70 69 69 66 64 64 62 61 49 54 51 55 45 46 43 37 36 41 38
60 64 65 67 71 67 66 64 62 70 71 73 68 62 62 62 61 63 62 62 63 65 70 73 73 72 75 67 63 63 64 57 49 50 55 55 55 51 49 48 48 44 41
50 55 61 63 61 56 57 64 68 63 63 68 67 65 64 63 61 59 60 60 64 68 74 78 76 73 74 68 61 57 59 58 56 55 56 55 57 58 55 53 56 55 46
13 23 32 44 52 53 48 51 55 57 59 62 65 64 63 58 56 61 65 63 65 74 79 80 77 75 72 71 58 59 57 58 62 58 59 58 63 64 61 60 63 61 58
4 13 14 21 31 46 44 45 49 51 54 56 55 56 57 57 56 56 61 71 78 82 78 78 71 73 58 55 56 59 65 68 66 62 65 61 61 66 65 65 60 63 60
20 10 10 14 23 31 34 37 38 39 41 45 49 53 53 52 55 55 51 48 53 43 31 35 42 45 54 56 62 64 62 60 63 67 68 67 68 68 66 63 63 60 60
24 23 32 29 20 11 9 6 14 24 23 25 34 42 38 24 17 29 25 29 31 35 38 40 44 45 47 50 55 59 61 62 63 67 71 74 70 73 72 69 69 70 71
53 47 35 26 13 14 12 10 12 10 8 10 15 10 8 12 15 21 27 32 34 36 38 40 46 50 54 58 61 64 66 68 71 71 70 70 74 77 74 73 74 74 73
33 36 33 31 29 26 21 19 14 8 2 4 9 12 17 21 24 30 34 38 41 44 48 52 55 58 62 65 68 70 72 73 74 76 72 74 73 71 71 69 71 72 74

GFSMA_500_spd_144.txt.gz
Wind_Speed
26 17 19 25 26 27 26 27 27 25 23 22 22 20 20 20 20 19 19 20 20 23 24 23 22 22 23 23 23 21 20 20 18 21 21 19 20 20 20 20 19 19 20
28 25 16 17 18 29 24 24 23 25 25 26 26 24 22 22 23 23 24 23 23 25 26 26 25 24 25 25 25 24 23 22 19 19 21 19 19 19 19 21 21 20 20
32 28 22 22 22 22 26 24 24 23 24 25 26 27 26 25 25 25 25 26 27 27 27 27 27 27 26 26 27 25 25 24 22 20 21 21 21 21 21 21 23 22 21
38 34 31 28 28 26 26 25 25 24 23 23 26 28 29 28 28 27 26 27 29 29 29 29 30 30 29 29 29 29 27 25 25 21 21 21 22 25 25 24 24 24 22
41 39 36 35 35 32 31 29 27 26 25 25 26 26 29 30 31 30 29 29 29 31 32 32 31 31 30 30 31 32 31 29 28 27 24 22 23 27 30 28 26 26 25
45 43 41 40 40 38 35 33 31 31 30 29 27 29 28 29 32 34 32 31 31 32 33 35 34 32 31 31 32 32 33 33 32 32 31 27 27 27 31 30 29 29 28
51 49 47 45 43 42 39 38 37 36 32 33 33 31 31 29 29 31 33 34 35 36 36 35 36 36 35 33 32 33 34 35 37 37 36 34 33 30 30 34 33 32 30
57 54 51 49 47 47 45 43 42 40 39 37 36 38 34 34 30 32 33 36 37 40 39 39 38 37 36 36 36 36 35 35 37 40 41 38 37 36 33 35 38 37 31
61 59 57 55 52 51 49 46 46 44 43 43 42 41 39 37 35 32 33 33 34 35 39 41 39 39 38 36 37 40 42 40 38 42 43 41 45 44 44 43 38 36 31
65 64 62 60 57 56 55 52 50 47 47 46 46 44 43 42 39 35 35 36 35 35 36 36 39 40 40 38 36 35 42 48 51 50 49 48 45 48 50 48 44 39 34
71 68 66 65 63 61 59 58 57 53 50 49 49 51 49 47 45 40 39 38 39 38 38 36 34 36 38 38 37 39 43 42 42 48 49 49 50 51 51 52 48 43 39
76 74 72 69 69 67 64 63 63 61 57 54 52 53 53 53 53 50 48 45 43 46 48 40 37 36 33 35 44 48 43 43 43 44 46 50 53 55 54 54 52 49 48
79 78 76 75 74 72 70 69 69 67 62 58 57 56 55 54 55 55 53 50 47 43 45 46 40 41 40 43 46 49 48 50 48 48 48 42 48 53 58 59 60 48 41
79 81 81 81 80 79 77 74 72 71 69 65 60 60 58 57 56 58 60 47 46 46 49 50 41 41 42 47 49 51 49 51 51 45 44 48 52 51 52 50 41 44 34
72 76 80 82 83 84 82 80 78 72 72 71 68 65 63 59 56 47 54 55 54 51 56 52 44 42 46 48 47 51 54 52 54 56 57 53 58 51 47 36 32 34 37
68 72 75 78 80 83 84 84 83 81 75 78 72 69 66 65 65 65 63 56 55 50 48 43 47 49 55 52 52 54 54 56 55 56 63 62 58 58 48 41 37 35 34
64 68 70 73 75 75 77 79 80 81 81 79 75 67 62 60 63 60 64 62 64 62 44 50 48 49 55 51 57 56 59 64 68 65 63 60 58 55 49 46 41 40 34
63 69 74 74 74 72 67 71 69 68 68 69 74 73 75 71 64 60 62 61 70 61 65 66 63 62 65 66 62 65 61 66 68 68 64 63 54 51 48 50 47 48 47
57 64 67 70 75 75 70 66 63 61 60 63 67 67 67 66 67 68 64 63 63 68 66 62 65 66 70 70 71 60 65 68 69 68 65 63 49 50 47 46 50 50 50
37 41 43 50 54 58 62 66 60 55 54 54 54 54 58 65 69 66 65 61 60 63 64 66 65 66 69 65 73 70 65 72 68 65 61 54 49 51 54 55 54 54 53
9 11 18 27 39 46 48 50 54 57 51 45 47 47 52 56 58 62 66 66 63 60 60 53 62 61 57 58 56 56 59 63 56 50 47 47 52 56 58 61 60 59 60
10 11 11 12 15 19 33 37 40 50 44 46 49 52 55 56 55 60 61 62 59 56 53 47 34 39 30 34 32 33 32 35 39 37 45 43 48 55 59 59 59 57 60
4 7 9 8 12 17 20 25 34 38 36 36 40 43 41 41 42 45 46 43 31 28 23 16 21 26 30 36 36 34 35 40 40 44 46 46 49 49 55 56 60 61 62
31 32 21 20 19 18 19 20 21 16 19 18 17 18 25 33 29 16 11 9 12 16 19 26 32 35 38 41 44 46 46 48 50 53 57 57 59 60 60 60 61 64 65
41 47 34 28 35 23 28 27 12 7 13 6 5 3 3 4 7 12 14 19 24 28 31 36 39 44 47 49 50 53 55 57 59 62 67 69 70 73 73 72 71 69 69
34 33 32 37 31 25 25 25 19 19 16 13 8 7 8 11 17 22 26 29 33 37 39 42 46 50 52 55 58 60 61 64 68 70 74 78 80 84 86 83 80 77 74

GFSMA_500_spd_147.txt.gz
Wind_Speed
31 27 27 29 27 27 29 31 30 28 28 28 26 24 21 18 19 17 17 17 19 22 22 24 23 23 22 22 22 22 21 20 19 19 19 19 19 20 19 19 20 20 20
35 32 27 25 24 23 25 27 27 26 28 28 29 27 25 22 20 22 21 21 22 23 24 25 24 24 23 23 23 24 24 22 20 20 18 18 18 19 21 21 23 23 23
38 36 33 25 24 20 20 27 27 23 26 26 27 28 29 27 25 25 25 24 24 24 25 25 26 26 25 25 24 25 25 24 23 22 22 21 21 19 20 23 24 24 23
43 39 37 31 29 32 26 22 25 24 25 25 23 24 26 27 29 27 28 28 27 28 28 27 27 27 27 27 26 25 26 25 25 25 24 24 22 21 22 22 23 24 27
45 44 42 37 35 38 34 29 28 28 26 26 27 24 23 23 25 28 30 31 30 31 31 31 30 29 28 28 29 27 27 27 26 26 26 25 26 25 25 24 25 25 28
48 48 46 44 40 40 38 33 32 34 32 31 31 29 27 25 26 25 26 31 32 33 34 33 33 32 30 30 29 29 28 28 29 28 28 28 27 27 29 27 28 29 31
53 52 51 48 45 42 42 39 37 37 37 37 36 33 33 30 27 27 26 26 30 31 33 35 36 35 34 33 32 30 30 29 30 31 32 29 32 32 30 33 34 34 36
57 56 54 52 50 49 46 45 42 40 40 41 41 40 36 34 29 32 31 29 30 31 33 35 36 38 38 37 34 32 32 33 34 36 37 38 38 38 38 41 39 39 37
55 59 58 56 56 55 53 50 49 46 44 45 44 44 42 38 38 35 33 33 33 34 32 33 33 31 33 35 36 37 36 34 30 27 34 33 34 37 43 41 43 44 42
55 56 61 62 60 59 58 56 54 52 50 49 47 46 45 44 42 41 38 36 36 36 37 35 36 33 31 33 32 34 37 36 33 37 35 35 35 36 39 41 41 43 47
62 59 59 63 65 64 61 60 59 58 55 53 52 50 50 47 45 44 40 38 39 37 39 39 39 37 38 39 33 35 32 35 36 40 43 43 40 40 37 35 42 46 46
68 66 64 64 66 67 67 65 61 61 58 57 55 54 53 53 49 48 47 43 44 45 45 45 44 46 46 46 42 39 38 39 38 38 39 37 38 38 39 36 38 41 43
72 71 71 69 68 69 70 70 68 67 63 61 62 58 58 56 52 49 51 48 45 46 49 49 47 50 52 47 46 45 45 45 44 42 42 41 41 40 40 46 48 44 39
76 76 76 76 74 73 75 75 76 72 66 59 70 65 63 60 58 54 56 54 53 49 50 49 48 50 48 48 50 51 42 46 45 44 43 44 44 45 47 48 50 50 46
78 79 78 76 74 75 76 77 77 76 75 73 67 66 66 66 64 60 58 54 54 49 53 46 53 54 50 48 50 51 51 51 52 48 46 48 49 50 50 52 52 47 47
59 61 63 67 70 69 72 76 79 79 79 78 76 74 71 69 67 63 60 59 56 53 58 51 41 46 50 40 47 38 37 38 47 42 45 49 47 50 50 52 52 49 46
49 52 56 59 62 65 67 71 75 79 81 81 80 78 76 71 68 62 70 65 63 58 54 50 56 56 56 53 49 58 54 54 52 52 60 59 51 58 60 55 50 51 47
48 52 56 59 61 65 67 70 73 75 78 80 82 81 79 76 74 70 61 63 68 63 62 66 60 57 59 65 70 68 66 63 62 61 55 59 68 63 63 60 56 49 46
47 51 55 58 62 66 69 70 70 70 71 73 74 75 76 74 72 71 74 67 67 65 64 60 66 64 67 67 70 70 72 70 67 60 62 59 60 62 56 53 48 41 42
31 37 46 52 56 60 65 68 71 71 70 66 63 61 63 63 60 58 61 64 59 64 68 69 69 68 66 62 66 65 60 48 40 40 38 34 34 37 45 42 37 37 41
20 22 20 21 27 35 43 46 55 61 61 64 57 55 52 50 51 62 49 56 63 67 70 69 69 69 67 61 52 41 29 26 20 22 23 27 29 23 22 25 25 26 29
13 11 17 19 22 23 26 33 41 39 46 53 57 58 51 46 46 55 60 62 59 59 60 62 62 62 46 36 24 20 22 25 24 26 29 31 33 30 31 34 35 36 39
34 29 16 12 19 21 18 15 25 28 29 39 46 52 47 49 47 45 45 45 48 50 49 47 35 23 21 22 23 27 37 36 37 38 40 41 43 43 45 47 47 47 48
42 36 36 33 23 6 5 8 14 20 23 27 35 44 42 38 36 36 38 43 36 21 25 26 23 24 26 29 35 39 42 45 46 48 51 51 52 52 53 54 55 57 59
33 38 40 36 35 31 33 14 13 12 13 18 21 31 26 30 33 34 26 16 21 23 21 23 26 30 36 40 44 48 50 52 54 57 60 60 61 61 62 64 65 67 69
26 26 26 29 31 27 23 20 23 20 15 10 8 11 15 17 16 19 19 29 30 28 30 34 37 41 44 47 51 54 56 57 60 62 64 66 67 70 71 71 72 74 77

GFSMA_500_spd_150.txt.gz
Wind_Speed
31 30 31 29 26 25 27 33 32 33 33 31 28 27 26 25 24 22 21 21 21 20 20 20 21 21 21 21 21 22 22 21 21 19 19 18 16 16 16 15 15 18 19
35 33 33 33 29 27 28 28 33 32 31 32 30 30 30 31 30 26 24 24 23 23 23 22 23 23 22 22 22 22 23 23 22 21 20 20 20 18 18 18 18 18 18
38 36 36 35 33 31 28 21 25 29 30 31 31 30 31 33 32 29 28 28 27 26 26 25 25 25 25 24 23 22 23 23 23 22 21 20 20 20 20 21 21 21 20
41 40 39 37 36 35 32 30 27 26 29 29 27 27 28 30 32 32 32 32 31 30 29 28 28 27 27 27 25 25 24 24 24 22 21 20 19 21 20 20 21 20 21
44 43 42 41 40 40 39 36 33 31 29 28 30 29 28 27 26 27 30 32 34 33 33 32 31 31 30 29 29 28 26 25 26 25 23 21 22 22 21 20 20 21 26
48 47 45 45 44 44 42 41 37 35 34 34 33 32 31 29 28 28 28 28 29 31 32 32 33 33 32 32 31 30 28 29 28 27 26 26 26 24 26 28 26 24 27
47 50 51 48 47 47 45 45 43 39 38 38 38 36 35 34 31 31 31 30 30 29 27 29 29 31 31 31 32 33 32 31 31 31 31 30 26 22 21 25 27 31 32
46 44 49 52 51 50 49 48 47 46 44 42 42 41 40 38 34 35 38 34 32 33 32 32 31 31 32 30 29 28 29 31 33 35 34 32 26 26 26 27 30 29 28
53 51 50 49 53 54 54 53 53 52 49 47 48 46 45 40 40 39 39 39 37 36 36 36 35 34 33 32 31 29 29 30 33 34 33 34 33 33 34 33 31 29 27
60 58 57 55 52 55 58 57 57 56 56 54 52 51 52 48 45 43 42 40 41 42 41 41 39 38 37 36 35 33 32 33 34 34 32 34 36 38 40 36 31 30 29
65 64 62 62 59 55 55 60 60 60 59 58 56 56 54 55 50 47 42 41 44 42 44 44 43 40 40 40 39 38 40 42 41 38 36 33 33 38 40 39 33 30 30
69 67 66 65 65 63 60 59 61 62 60 59 60 59 60 61 55 53 50 48 45 44 44 46 48 46 46 46 47 45 46 46 47 46 42 43 43 39 40 42 42 34 32
74 71 69 67 67 67 67 66 64 64 66 67 65 59 61 60 59 58 57 53 50 47 47 46 46 46 47 49 52 50 50 49 45 46 46 46 42 43 42 41 42 43 37
78 78 76 74 71 69 71 72 71 69 69 70 71 70 67 61 59 60 62 59 58 55 52 48 46 47 50 52 57 52 53 51 50 52 49 46 46 47 50 44 42 43 38
82 82 80 79 78 77 74 74 74 73 73 74 75 75 70 71 69 64 61 65 62 63 56 51 47 50 47 50 44 50 50 50 46 46 43 45 47 43 44 43 38 44 44
69 72 74 77 79 78 78 78 78 76 75 77 79 79 77 76 74 69 65 60 69 64 63 63 56 55 52 51 52 50 44 44 47 43 44 45 46 47 50 53 55 59 54
42 49 56 59 64 71 75 76 77 78 78 78 81 82 82 80 80 79 77 78 65 54 53 55 57 55 53 58 57 56 48 53 53 61 58 56 58 61 63 60 60 56 68
35 40 45 48 51 54 60 66 69 71 75 77 79 82 84 83 83 83 82 81 77 73 74 64 60 66 62 60 64 60 60 59 54 60 64 70 71 70 69 57 47 48 47
34 40 42 45 50 54 57 60 65 69 72 74 76 77 79 82 84 84 83 82 81 75 74 65 52 58 55 59 58 64 62 64 62 65 63 61 58 49 38 45 43 40 43
9 16 31 42 44 47 53 60 64 67 69 70 72 74 76 78 80 82 81 81 80 78 71 66 65 69 77 68 69 72 74 70 68 63 62 48 41 36 38 29 23 22 21
30 19 13 15 20 24 30 37 49 63 69 71 72 70 67 64 62 64 69 70 69 68 67 63 73 67 66 68 62 60 67 71 70 67 46 26 26 23 31 32 32 31 30
31 32 29 21 14 17 22 26 27 32 38 46 58 65 68 66 65 57 54 55 58 54 53 63 55 49 55 61 67 68 65 56 44 39 32 31 31 33 36 37 38 39 40
35 34 36 37 32 24 19 15 17 25 28 32 37 43 51 56 54 55 53 48 50 48 56 57 61 60 56 55 56 53 44 37 34 34 33 35 40 40 43 44 45 48 49
28 28 30 32 33 31 31 28 20 15 11 7 16 22 30 42 44 47 47 48 49 52 50 49 53 50 47 46 41 41 35 33 36 38 39 41 45 47 49 52 54 56 58
25 25 25 26 29 28 23 29 30 27 17 10 6 9 16 23 33 38 42 43 44 38 36 33 30 35 39 36 35 35 37 40 43 46 49 51 53 54 56 58 61 62 64
26 26 25 24 23 24 23 20 20 23 24 18 9 5 6 14 20 27 29 28 30 31 25 27 34 33 34 37 40 42 45 49 52 55 57 58 59 61 61 61 63 65 68

GFSMA_500_spd_156.txt.gz
Wind_Speed
37 36 34 33 32 32 31 31 29 26 24 25 25 30 34 34 33 32 31 30 28 28 27 27 27 25 24 23 22 22 23 23 21 19 18 16 14 14 15 15 15 16 16
39 39 39 38 37 36 35 36 34 30 28 25 24 25 32 34 33 34 34 32 33 33 30 29 27 26 26 27 26 25 25 24 23 23 21 19 17 15 16 17 18 18 19
45 42 41 42 42 40 39 39 37 33 29 26 25 22 28 30 32 34 35 35 36 36 34 32 31 30 30 29 28 28 27 26 24 25 22 21 20 18 17 18 19 19 20
50 50 47 43 44 44 44 42 40 38 33 31 30 27 24 26 30 34 34 36 35 35 34 34 33 34 34 32 31 31 30 29 27 26 26 24 23 22 22 21 22 23 20
47 49 52 50 47 46 46 46 44 41 39 37 37 34 27 29 28 32 31 31 31 31 32 31 32 31 31 32 33 32 31 29 28 27 27 26 25 26 27 26 24 23 20
53 51 49 52 53 51 48 48 47 45 43 42 39 44 34 32 33 34 29 31 28 30 31 31 29 29 28 27 28 29 28 26 26 27 28 28 28 28 27 28 27 23 23
57 56 54 52 52 55 54 52 51 49 47 44 44 43 44 36 36 36 33 32 30 33 34 34 33 31 31 30 30 30 29 29 28 27 27 26 25 26 27 28 28 28 28
63 62 59 57 54 52 53 56 55 53 50 49 48 48 47 44 40 39 40 39 37 39 38 38 37 37 36 34 33 33 33 33 33 31 30 29 28 28 28 28 28 30 31
69 67 64 62 60 57 54 51 54 57 56 53 51 52 51 47 44 44 44 44 44 43 43 42 42 42 41 39 38 36 36 36 34 36 36 36 36 34 34 33 34 33 36
75 72 69 67 64 62 61 57 55 53 55 56 55 55 55 54 49 46 46 47 47 48 47 46 48 48 46 45 42 40 40 41 39 37 38 37 39 38 37 37 39 40 39
76 75 75 72 69 67 63 62 60 59 57 54 55 55 56 56 56 53 49 50 52 51 53 53 49 51 53 50 48 45 44 45 43 39 39 39 41 43 43 43 41 40 37
80 77 75 73 73 71 68 66 64 62 62 60 59 58 56 55 55 58 59 57 54 56 58 56 55 54 57 50 49 51 48 46 45 43 42 42 45 45 46 44 44 43 42
70 78 77 74 72 71 71 69 67 65 64 64 63 63 62 60 59 61 60 59 59 62 60 62 49 53 54 57 53 53 51 52 50 50 48 47 49 47 43 41 42 44 48
62 62 72 77 73 70 70 70 68 67 67 66 67 67 67 66 66 66 65 66 66 65 62 60 65 60 57 66 68 66 59 59 53 55 51 52 51 48 47 46 43 46 47
43 57 56 59 70 73 71 70 70 69 70 69 68 69 69 69 70 69 70 71 72 71 68 66 67 61 65 61 62 57 57 61 57 50 54 55 56 53 54 51 49 48 46
23 28 34 41 45 54 63 70 75 75 74 73 73 74 74 73 72 71 72 73 74 75 75 71 69 69 70 72 63 62 59 63 65 56 61 55 55 59 54 55 52 50 46
16 23 27 31 36 43 49 55 61 67 72 76 78 79 79 79 78 78 79 78 78 78 78 74 75 75 73 72 71 69 67 51 54 58 55 59 71 67 57 51 52 50 48
17 20 22 24 27 30 33 39 45 51 56 60 65 71 79 85 84 83 84 84 84 84 84 81 79 80 79 76 73 73 70 66 63 67 58 58 51 53 65 55 50 46 52
32 26 16 10 22 29 30 32 35 39 44 51 56 61 64 70 75 80 84 86 87 88 89 89 85 83 82 76 74 73 75 78 77 77 84 71 67 62 60 57 49 52 55
31 33 32 34 33 31 23 10 13 28 39 45 48 51 55 61 66 71 75 78 81 83 83 84 86 84 82 80 79 77 74 73 73 73 78 74 71 67 65 61 66 64 56
27 28 26 28 29 28 28 22 23 18 16 17 19 18 21 35 52 66 71 71 72 71 69 68 68 71 74 76 74 71 73 73 73 72 73 74 73 61 62 59 55 56 57
24 24 24 23 22 23 22 23 23 23 21 18 16 17 21 22 23 31 45 52 54 59 63 63 56 51 51 51 52 61 61 60 63 48 57 60 64 62 67 77 71 60 54
23 23 22 21 21 21 20 20 21 22 22 24 25 24 22 21 24 24 24 29 34 38 42 49 53 50 46 40 41 38 42 45 55 55 57 51 48 62 59 61 68 57 55
27 27 26 26 25 24 23 22 21 21 22 24 25 26 28 29 25 25 24 20 20 20 27 35 41 44 45 43 42 42 37 42 41 46 47 51 47 47 44 40 40 43 45
26 26 26 25 24 24 24 23 24 26 26 26 27 28 28 29 30 27 21 22 16 16 24 26 32 40 40 43 45 44 48 38 42 40 45 45 62 48 50 50 48 45 44
26 26 25 24 23 23 24 24 25 26 27 28 28 28 29 30 30 30 28 24 21 19 15 16 19 25 30 35 38 43 42 43 36 42 40 39 38 44 41 41 40 43 46

GFSMA_500_spd_159.txt.gz
Wind_Speed
39 38 37 37 36 35 35 34 33 32 30 29 28 27 26 27 30 33 32 32 31 29 27 26 25 25 23 23 23 23 22 23 23 22 19 19 18 16 16 15 17 19 19
43 44 42 40 40 39 39 39 38 37 34 33 31 31 30 26 25 31 32 31 32 32 30 30 29 27 24 25 25 25 26 25 25 24 23 22 19 19 19 18 18 18 20
43 43 45 46 44 43 43 42 42 41 39 36 34 32 32 29 27 29 31 33 32 31 32 33 33 31 30 28 27 27 27 27 26 25 26 25 22 21 21 21 20 20 21
48 48 46 45 49 48 47 46 45 45 43 41 39 35 34 35 32 28 28 31 33 33 33 34 33 32 30 30 29 28 29 29 29 28 27 26 25 25 23 23 23 23 23
53 52 52 49 48 49 50 50 50 49 47 44 43 41 42 40 37 33 29 27 30 33 32 31 31 29 28 29 26 27 27 27 26 27 26 25 25 25 25 25 24 24 24
58 58 57 55 54 52 50 51 53 53 52 49 45 44 43 41 42 45 34 31 31 32 30 30 31 28 27 27 28 26 25 24 22 24 24 24 24 24 23 23 23 23 24
65 64 62 61 60 57 55 53 52 54 55 54 52 48 45 43 46 41 34 34 33 34 33 36 33 31 31 31 31 30 28 28 27 26 27 26 25 24 24 24 24 24 24
72 71 69 67 64 62 60 57 56 53 54 56 56 54 52 54 52 45 40 35 34 37 36 36 39 38 36 36 36 35 33 32 31 30 29 29 29 28 28 28 28 29 29
74 74 74 73 69 66 64 63 60 58 55 54 56 59 57 54 52 52 49 43 41 44 44 42 38 37 43 41 41 40 38 38 37 35 33 34 33 31 31 32 32 31 31
79 76 75 75 74 71 68 66 64 63 62 58 55 53 57 59 57 56 53 50 48 47 49 49 48 47 44 43 48 44 44 43 42 41 40 38 37 36 34 35 35 35 35
72 75 78 77 73 72 71 69 67 66 65 64 61 58 54 54 57 59 56 53 53 51 53 51 50 50 51 52 51 50 51 51 47 43 44 41 40 39 40 41 42 41 41
67 69 68 70 73 72 70 69 69 68 66 66 64 63 61 58 57 56 55 56 55 55 56 56 54 52 56 54 57 45 51 55 40 37 42 44 41 41 43 44 44 43 43
57 58 63 62 62 66 70 71 68 67 69 67 65 64 64 62 62 62 61 59 58 55 55 56 58 61 56 55 57 56 56 63 45 59 56 52 49 45 47 49 47 46 47
42 50 55 58 59 58 58 62 69 66 65 67 67 66 66 65 64 65 66 66 65 63 60 57 58 58 61 59 60 62 63 57 52 53 55 56 58 60 53 54 53 50 48
18 26 39 48 52 53 52 54 59 67 66 63 63 65 66 67 67 67 68 69 70 69 66 65 65 63 65 68 67 66 66 64 61 60 56 55 55 57 58 56 50 51 51
14 15 16 21 37 42 47 47 44 48 59 66 64 63 65 67 69 69 71 71 73 74 73 71 70 70 70 70 72 72 68 67 66 66 70 65 55 60 61 62 64 58 56
18 13 12 13 17 23 31 36 37 43 47 51 58 63 67 69 70 72 74 76 77 79 81 79 78 76 75 74 74 76 74 73 72 68 69 69 64 59 57 64 57 58 58
39 35 21 11 12 14 20 25 28 31 34 38 44 50 56 62 66 71 75 78 81 84 86 82 83 84 85 83 81 80 79 77 75 73 72 72 71 71 67 61 58 58 51
34 35 36 36 30 19 5 14 20 21 22 24 28 31 36 40 46 53 60 66 71 76 81 86 88 91 91 90 89 88 85 83 80 77 75 73 72 72 75 79 77 69 73
30 30 30 29 28 30 29 28 24 20 14 7 3 2 4 9 15 22 28 38 49 59 70 76 78 83 86 85 87 85 85 83 80 76 75 72 71 69 70 72 75 76 76
27 26 25 24 23 21 20 20 18 17 17 16 16 15 15 14 15 16 17 20 23 26 37 53 59 63 68 70 69 64 64 57 58 61 65 65 69 64 59 72 69 69 70
26 25 24 22 20 19 17 16 15 14 14 14 13 14 15 17 18 20 22 23 26 28 30 30 33 39 42 48 53 54 51 48 42 42 46 42 49 59 55 55 57 53 56
26 25 23 22 21 19 18 17 15 15 15 16 18 19 21 22 24 25 27 29 31 30 27 24 24 22 25 30 40 36 46 39 39 36 42 49 52 55 56 51 49 45 54
25 25 24 22 21 21 20 20 20 20 20 20 21 23 25 27 29 31 32 33 33 32 31 27 24 21 23 33 29 41 41 47 33 40 45 56 42 48 48 59 62 60 57
24 22 21 22 22 21 20 19 19 20 21 23 23 24 26 29 31 34 35 35 35 34 31 28 26 26 29 29 30 33 42 45 48 47 60 46 37 38 39 43 51 52 55
25 24 24 23 23 23 22 23 24 25 25 26 28 30 32 35 37 39 41 42 41 40 38 35 29 28 26 25 27 30 38 43 46 51 47 45 45 47 49 50 53 53 50